           , 1.998,  2.145,  2.293,  2.441,  2.589,  2.736,  2.884,  3.032,  3.179,  3.327,  3.475,  3.623,  3.770,  3.918,  4.066,  4.213,  4.361,  4.509,  4.657,  4.804,  4.952,  5.100,  5.248,  5.395,  5.543,  5.691,  5.838,  5.986,  6.134,  6.282,  6.429,  6.577,  6.725,  6.872,  7.020,  7.168,  7.316,  7.463,  7.611,  7.759,  7.907,  8.054,  8.202,  8.350,  8.497,  8.645,  8.793,  8.941,  9.088,  9.236,  9.384,  9.531,  9.679,  9.827,  9.975, 10.122, 10.270, 10.418, 10.565, 10.713, 10.861, 11.009, 11.156, 11.304, 11.452, 11.600, 11.747, 11.895, 12.043, 12.190, 12.338, 12.486, 12.634, 12.781, 12.929, 13.077, 13.224, 13.372, 13.520, 13.668, 13.815, 13.963, 14.111, 14.259, 14.406, 14.554, 14.702, 14.849, 14.997, 15.145, 15.293, 15.440, 15.588, 15.736, 15.883, 16.031, 16.179, 16.327, 16.474, 16.622, 16.770, 16.917, 17.065, 17.213, 17.361, 17.508, 17.656, 17.804, 17.952, 18.099, 18.247, 18.395, 18.542, 18.690, 18.838, 18.986, 19.133, 19.281, 19.429, 19.576
2001/03/23 00:05,   11.1,   12.3,   13.4,   13.5,   15.0,   17.1,   17.5,   18.6,   18.5,   17.8,   18.7,   19.8,   20.1,   19.8,   16.0,   18.8,   21.5,   22.3,   20.1,  999.0,   27.0,   27.0,   28.0,   28.8,   29.4,   31.1,   33.5,   34.8,   36.0,   36.3,   38.4,   40.5,   42.0,   42.2,   42.3,   42.0,   42.9,   44.0,   45.7,   45.3,   45.9,   45.5,   47.0,   49.3,   53.7,   52.0,   48.1,   45.0,   44.8,   45.9,   46.4,    2.8,   43.3,   52.1,   52.7,   56.0,   55.5,   62.7,  999.0,   51.4,   54.3,   62.6,   65.9,  999.0,   61.3,   62.7,   57.5,   58.2,   56.4,   52.1,   48.4,   45.9,   45.1,   45.2,   44.5,   42.3,   42.3,   44.3,   39.2,   41.7,   41.2,   41.0,   39.0,   42.3,   45.3,   39.0,   45.4,   40.4,   38.2,   42.6,   43.1,   53.4,   54.4,   39.3,   45.9,   44.8,   62.8,   63.2,   28.7,   35.7,   29.4,   63.5,   29.6,   28.1,   27.2,   32.8,   29.2,   27.1,   26.7,   27.0,   27.3,   34.8,   37.9,   63.1,   26.0,   30.6,   27.3,   20.8,   21.8,   23.4
2001/03/23 00:15,   11.9,   13.2,   13.0,   13.6,   15.8,   16.6,   17.1,   17.3,   17.7,   18.1,  999.0,  999.0,   20.4,   18.6,   18.3,   21.0,   22.5,   23.4,   23.0,   24.7,   26.8,   27.3,   28.7,   29.8,   30.7,   32.9,   34.6,   35.7,   36.0,   37.6,   40.2,   41.7,   42.2,   42.4,   41.8,   42.1,   41.5,   44.2,   45.3,   46.0,   46.5,   45.7,   47.1,   47.5,   51.0,   51.1,   49.0,   48.7,   51.4,   52.1,   49.0,   50.4,   50.2,   53.9,   54.1,   52.8,   54.0,  999.0,   51.2,   54.8,   59.2,   62.6,   64.6,   66.3,   62.2,   60.0,   58.9,   59.8,   55.8,   50.0,   48.7,   46.8,   41.8,   43.5,   42.9,   43.2,   45.5,   39.6,   42.7,   42.8,   38.4,   37.8,   38.2,   37.0,  999.0,   37.8,   40.3,   44.6,   36.7,   40.4,   43.4,   40.7,   41.1,   38.2,   39.0,   37.0,   43.0,   37.2,   28.5,  999.0,  999.0,  999.0,  999.0,   28.8,   27.3,   27.5,   28.7,   29.6,   26.0,   26.5,   25.5,   27.4,   27.9,  999.0,  999.0,  999.0,   21.7,   22.4,   22.2,  999.0
2001/03/23 00:25,   11.8,   13.3,   13.5,   14.8,   17.0,   16.8,   15.8,   15.8,   15.7,   16.7,   18.0,   19.9,   20.0,   17.8,   19.7,   22.2,   23.0,   23.3,   24.5,   25.2,   26.8,   27.5,   28.7,   30.1,   31.2,   32.6,   34.0,   35.7,   36.3,   37.2,   40.4,   42.3,   42.2,   41.9,   42.5,   43.3,   43.2,   44.0,   45.5,   45.6,   43.7,   46.6,   46.0,   48.3,   53.2,   49.6,   48.9,   47.4,   51.2,   48.1,   51.3,   51.4,   51.8,   53.9,   52.4,   52.9,   58.0,   53.2,   53.2,   58.1,   61.3,   64.9,   61.5,   65.9,   65.2,   60.9,   59.5,   58.3,   57.3,   52.2,   50.1,   48.3,   42.2,   44.3,   42.2,   44.1,   46.6,   45.8,   42.4,   43.6,   42.8,   36.9,   41.2,   45.7,  999.0,   37.0,   40.9,   45.7,   39.3,   40.7,   40.1,   40.8,   42.0,   42.6,  999.0,   40.4,   38.4,   35.6,   33.9,   31.3,   31.2,  999.0,  999.0,  999.0,   25.7,   27.8,   29.1,   30.6,   27.5,   26.2,  999.0,   27.7,   30.2,  999.0,   26.9,   24.7,  999.0,  999.0,  999.0,  999.0
2001/03/23 00:35,   11.0,   13.2,   14.4,   16.3,   17.2,   17.6,   17.3,   17.6,   17.4,   17.7,   19.1,   19.8,   19.3,   18.4,   20.6,   23.8,   24.8,   24.6,   26.5,   25.3,   26.3,   28.0,   29.4,   31.0,   32.1,   32.9,   34.1,   35.8,   36.4,   38.6,   41.7,   42.3,   40.9,   43.2,   43.1,   43.2,   44.9,   45.3,   45.7,   45.0,   44.8,   46.0,   48.1,   50.2,   52.5,   49.4,   48.3,   48.7,   50.4,   50.1,   52.8,   50.5,   54.1,   49.6,   51.7,   54.3,   56.3,   52.4,   57.8,   60.6,   62.9,   59.7,   63.9,  999.0,   56.5,   61.9,  999.0,   57.7,   55.8,   51.2,   52.8,   47.5,   43.5,   43.3,   46.5,   44.1,   46.2,   48.3,   42.9,   42.3,   42.5,   40.4,   42.6,   43.6,   39.3,   42.0,   43.9,   41.4,   42.0,   41.9,   42.9,   43.9,   45.2,  999.0,   41.3,   39.3,   40.9,   41.6,   36.0,   33.3,   33.5,   32.3,  999.0,  999.0,   25.5,   28.4,   28.8,   29.7,   26.1,   25.6,   26.9,   26.7,   27.2,  999.0,  999.0,   24.1,   21.9,   22.7,  999.0,  999.0
2001/03/23 00:45,   11.6,   13.3,   14.2,   15.7,   16.5,   16.7,   18.7,   17.0,   17.8,   18.6,   20.1,   20.3,   18.0,   19.4,   21.8,   23.4,   24.6,   26.1,   26.6,   24.9,   26.5,   27.4,   29.1,   30.0,   32.2,   32.9,   33.9,   35.7,   36.6,   38.4,   40.9,   41.9,   41.6,   42.8,   42.0,   43.5,   45.2,   45.7,   47.0,   44.9,   45.5,   46.7,   49.2,   52.5,   50.9,   49.1,   48.3,   50.6,   50.0,   51.7,   48.0,   53.6,   48.9,   51.6,   52.4,   57.4,   52.9,   55.0,   59.5,   64.8,   62.5,   63.4,  999.0,   63.2,   63.5,   63.8,   57.1,   58.1,   55.2,   52.4,   50.8,   49.0,   43.4,   42.5,   45.2,   47.8,   47.8,   47.1,   46.0,   43.8,   44.1,   43.2,   44.4,  999.0,   39.5,   43.5,   46.1,   44.8,  999.0,   44.0,   46.7,   49.0,  999.0,  999.0,   49.0,  999.0,   44.2,   44.0,   41.8,   35.4,   36.1,   42.1,  999.0,  999.0,   28.9,   32.3,   33.2,   33.5,   32.2,   31.0,   28.7,   26.8,   32.9,  999.0,  999.0,   20.6,   20.9,   23.0,   24.6,   20.1
2001/03/23 00:55,   10.7,   12.9,   13.7,   15.3,   16.0,   16.6,   16.5,   16.7,   17.1,   16.8,   17.6,   19.1,   19.2,   18.6,   20.7,   22.0,   24.1,   25.0,   24.7,   24.5,   26.3,   26.6,   28.8,   30.0,   31.8,   32.9,   33.7,   35.7,   36.0,   38.8,   40.8,   41.5,   42.0,   42.5,   42.6,   44.4,   44.8,   44.9,   46.6,   44.9,   45.2,   47.7,   49.0,   50.4,   50.6,   49.1,   48.7,   48.5,   49.5,   52.2,   48.8,   47.7,   50.0,   51.3,   53.5,   54.0,   52.1,   56.2,   58.6,   63.0,   61.9,   66.9,  999.0,   16.2,   66.6,   59.5,   58.6,   58.6,   55.6,   51.2,   52.0,   46.7,   46.1,   41.9,   45.4,   46.9,   48.6,   47.9,   48.8,   40.6,   44.9,   44.4,   45.2,   46.3,   42.6,   42.6,   45.6,   44.8,   47.3,   46.0,   47.1,   47.5,   47.7,   48.2,   44.2,   44.3,  999.0,   43.6,   40.9,  999.0,   37.1,   39.3,  999.0,   34.2,   31.2,   33.6,   35.8,   35.4,   35.4,   31.7,   30.7,   31.0,   32.7,  999.0,   26.8,   28.9,   22.6,   22.0,   20.8,   22.1
2001/03/23 01:05,   10.1,   11.6,   13.8,   14.6,   15.3,   15.1,   15.9,   16.4,   16.8,   16.4,   16.3,   18.7,   18.6,   19.2,   21.1,   22.3,   24.0,   24.7,   25.8,   25.1,   25.3,   26.6,   28.2,   30.0,   31.7,   31.9,   34.5,   35.4,   36.9,   39.2,   39.8,   41.0,   42.4,   42.5,   42.7,   45.3,   45.1,   45.7,   45.6,   44.9,   45.4,   46.6,   48.5,   52.7,   48.9,   48.2,   49.4,   49.1,   49.8,   51.6,  999.0,   50.8,   51.3,   48.5,   53.4,   52.7,   53.6,   55.9,   61.2,   63.6,   61.0,   67.0,  999.0,  999.0,   61.3,   63.0,   57.2,   58.7,   53.7,   51.2,   53.5,   43.4,   43.9,   41.1,   45.3,   45.2,   47.9,   45.8,   50.9,   44.7,   44.2,   47.0,   43.8,   45.3,   42.2,   42.7,   42.9,   42.3,   46.5,   49.7,   40.1,   46.8,   50.1,  999.0,   44.1,   42.2,   45.5,   42.0,   44.9,   34.8,   36.1,  999.0,   30.8,  999.0,   29.4,   31.6,   34.0,   33.7,  999.0,  999.0,  999.0,   29.6,   29.4,  999.0,  999.0,   25.1,   21.6,   21.5,  999.0,  999.0
2001/03/23 01:15,   11.0,   11.0,   12.6,   14.1,   15.1,   15.7,   15.8,   15.4,   15.8,   15.2,   15.7,   18.5,   18.7,   19.4,   20.1,   22.7,   23.8,   24.3,   24.8,   24.3,   25.0,   26.8,   28.2,   30.1,   32.2,   31.8,   33.8,   35.1,   36.4,   38.0,   39.6,   39.3,   40.8,   42.2,   42.1,   43.6,   45.1,   46.4,   44.7,   45.1,   45.6,   48.1,   48.8,   51.4,   47.2,   48.8,   47.3,   48.1,   49.7,   49.6,   52.1,  999.0,   52.0,   51.0,   53.7,   51.1,   52.3,   55.7,   58.8,   58.4,   60.4,   58.8,  999.0,   63.7,   64.2,   64.4,   56.1,   55.9,   52.3,   51.1,   48.0,   43.2,   41.2,   44.1,   43.6,   47.2,   46.8,   44.3,   46.6,   41.2,   40.5,   43.7,   40.9,   43.0,   37.7,   40.0,   39.9,   41.2,   43.0,   39.7,   44.3,   48.8,  999.0,   39.4,   47.4,   40.7,   38.7,   35.5,   39.8,  999.0,   30.6,   31.7,  999.0,  999.0,   25.8,   27.1,   28.3,   31.7,  999.0,  999.0,   24.6,   28.3,   23.0,   27.8,  999.0,   25.6,   20.3,   22.5,  999.0,   25.1
2001/03/23 01:25,    9.9,   10.9,   12.2,   13.6,   14.3,   14.7,   15.8,   14.7,   14.7,   15.2,   16.0,   17.3,   18.1,   19.0,   20.2,   21.3,   22.4,   23.0,   23.0,   23.5,   25.3,   25.2,   27.3,   29.4,   31.6,   31.3,   33.2,   35.9,   35.6,   38.2,   38.4,   40.3,   41.2,   41.1,   42.8,   42.0,   45.2,   45.6,   45.1,   44.8,   44.3,   47.1,   47.9,   49.7,   48.4,   47.3,   44.7,   47.5,   49.2,   51.7,   49.9,   51.4,   50.8,   51.3,   54.2,   51.9,   50.1,   50.2,   58.2,  999.0,   57.8,  999.0,  999.0,   60.0,   63.7,   62.7,   56.4,   53.5,   52.5,   47.3,   49.2,   41.7,   42.5,   43.2,   46.8,   43.8,   44.4,   43.1,   43.2,   40.7,   40.2,   41.7,   43.9,   39.4,   39.5,   38.8,   39.3,   42.0,   44.2,   41.7,   45.7,  999.0,  999.0,   45.3,   45.5,   38.3,   39.8,   33.8,  999.0,  999.0,  999.0,   31.1,  999.0,  999.0,   24.7,   25.7,   27.8,   29.9,  999.0,  999.0,   24.3,   27.2,   25.8,   27.9,   26.7,   25.4,   21.8,   24.5,  999.0,   26.3
2001/03/23 01:35,    9.2,   10.1,   12.8,   14.2,   14.9,   15.8,   15.6,   16.0,   14.7,   15.7,   16.3,   18.4,   18.2,   19.4,   21.4,   21.8,   23.5,   23.5,   23.6,  999.0,  999.0,   27.7,   27.9,   30.0,   31.7,   31.7,   33.2,   35.4,   36.0,   37.3,   37.2,   39.5,   41.1,   39.9,   42.5,   43.2,   46.7,   44.4,   45.5,   45.6,   44.9,   47.8,   47.7,   50.2,   48.8,   49.2,   46.8,   48.4,   49.7,   50.6,   52.1,   50.7,   50.7,   52.9,   52.7,   52.3,   52.6,   56.9,  999.0,   53.6,   58.4,   62.9,   57.4,   62.6,   64.2,   60.5,   57.6,   53.7,   60.0,   46.9,   49.0,   40.7,   44.6,   46.4,   47.3,   44.6,   41.3,   42.4,   43.4,   40.1,   40.7,   42.1,   42.1,   37.7,   38.1,   37.9,   40.9,   45.7,   47.9,   40.5,  999.0,  999.0,  999.0,  999.0,   45.3,  999.0,   36.4,   35.6,   34.2,  999.0,  999.0,   29.6,  999.0,  999.0,   25.2,   25.1,   27.8,   30.5,   30.5,  999.0,   25.1,   27.6,   27.5,   25.8,   28.2,   27.1,   24.3,   21.6,   23.0,   26.5
2001/03/23 01:45,   10.8,   13.1,   14.6,   15.5,   15.4,   15.6,   15.8,   15.2,   14.9,   15.5,   16.1,   18.6,   18.4,   19.2,   20.9,   21.6,   22.8,   24.1,   23.5,   25.0,   24.8,   27.2,   28.1,   30.4,   32.5,   31.9,   33.6,   34.9,   35.4,   37.3,   38.3,   40.2,   39.4,   41.8,   41.6,   43.1,   45.2,   46.6,   45.0,   45.4,   46.0,   48.2,   49.4,   48.5,   48.9,   48.9,   48.1,   49.4,   49.7,   51.5,   50.2,   52.0,   50.2,   54.0,   54.6,   52.4,   55.0,   57.7,   54.1,   60.4,   57.8,   60.7,   60.0,   63.7,   64.7,   57.9,   59.0,   54.0,   45.9,   46.4,   48.0,   45.3,   43.1,   47.1,   44.7,   45.5,   40.0,   41.7,   43.4,   38.5,   40.1,   42.2,   42.8,   38.6,   39.3,   39.8,   42.4,   45.3,  999.0,  999.0,  999.0,  999.0,   47.3,  999.0,   40.3,   38.1,   35.7,   39.6,  999.0,  999.0,   27.3,   30.9,  999.0,   26.2,   24.7,   26.5,   27.7,   30.6,  999.0,  999.0,  999.0,   26.1,   27.8,   27.4,   26.6,   27.2,   25.0,   21.6,   23.0,   22.9
2001/03/23 01:55,   10.7,   13.0,   14.5,   14.9,   14.7,   14.5,   14.5,   14.5,   13.8,   15.0,   16.7,   19.0,   19.4,   18.4,   20.1,   21.1,   23.0,   23.1,   24.8,   25.1,   24.7,   26.3,   28.6,   30.8,   32.5,   31.6,   33.0,   33.9,   34.6,   36.6,   38.7,   38.8,   38.7,   41.0,   42.0,   42.5,   44.7,   46.6,   45.3,   44.0,   44.0,   46.6,   47.6,   48.6,   47.6,   49.1,   46.8,   48.4,   49.6,   51.5,   50.6,   49.7,   51.3,   54.5,   52.0,   54.2,   54.4,   57.3,   55.8,   58.6,   59.3,   57.6,   61.2,   63.6,   64.6,   58.1,   59.0,   54.9,   47.4,   47.2,   45.0,   49.9,   44.6,   44.1,   43.7,   46.1,   42.0,   41.3,   42.9,   40.9,   39.5,   42.7,   43.9,   38.6,   40.2,   42.1,   41.3,   46.2,   50.6,  999.0,  999.0,   48.4,  999.0,  999.0,   40.4,   37.8,   37.8,   37.6,  999.0,  999.0,   30.0,   31.8,  999.0,   31.5,   26.0,   27.4,   30.0,   33.7,   28.1,   30.5,   27.6,   27.8,   28.2,   28.1,  999.0,   25.7,   23.7,   22.7,   25.8,   23.9
2001/03/23 02:05,   12.2,   13.5,   13.9,   14.5,   14.4,   14.2,   14.2,   13.9,   14.3,   15.3,   18.0,   19.9,   19.1,   18.7,   20.1,   21.5,   22.6,   22.9,   24.6,   24.7,   25.4,   29.0,   28.6,   30.3,   30.8,   32.2,   33.0,   34.6,   34.5,   36.8,   38.0,   38.2,   37.5,   40.4,   41.5,   41.5,   43.4,   45.2,   46.5,   44.2,   44.3,   46.7,   48.4,   47.0,   48.3,   48.3,   48.8,   48.3,   48.5,   51.0,   49.3,   50.2,   51.0,   52.4,   56.7,   53.2,   54.4,  999.0,   58.2,  999.0,   62.0,   57.4,   60.3,   64.2,   63.4,   65.7,   58.5,   54.6,   45.1,   48.4,   47.9,   50.1,   48.7,   47.0,   46.3,   46.3,   40.9,   41.5,   40.1,   42.1,   40.1,   41.4,   40.5,   41.7,   40.0,   42.9,   42.4,   48.1,   53.5,  999.0,  999.0,  999.0,  999.0,  999.0,   48.4,   36.2,   35.2,   34.3,   35.2,  999.0,  999.0,   30.7,  999.0,  999.0,   26.0,   26.2,   28.7,   31.9,   29.3,   27.5,   26.1,   26.8,   26.2,   27.8,  999.0,   23.3,   20.8,   21.9,   21.3,   21.8
2001/03/23 02:15,   10.7,   12.1,   13.1,   14.0,   14.1,   13.8,   14.0,   13.7,   15.0,   16.1,   17.5,   19.5,   18.7,   19.8,   20.2,   21.4,   22.3,   23.0,   23.9,   24.8,  999.0,   28.2,   29.7,   31.4,   31.9,   32.0,   33.8,   35.0,   36.9,   37.0,   37.9,   38.9,   38.5,   40.2,   41.0,   41.7,   42.4,   43.0,   46.5,   44.7,   46.1,   48.7,   48.3,   48.4,   48.5,   48.0,   48.6,   50.3,   50.6,   51.0,   49.8,   49.9,   51.3,   54.1,   53.3,   51.3,   53.4,   48.7,  999.0,   55.7,   62.3,   58.1,   61.4,   65.2,   65.5,   60.8,   59.0,   56.5,   46.4,   47.7,   50.5,   49.8,   52.8,   45.9,   48.4,   45.4,   41.1,   44.2,   40.1,   42.6,   39.7,   38.9,   41.9,   44.3,   40.8,  999.0,   41.5,   47.2,   51.9,  999.0,  999.0,  999.0,   52.0,   47.3,   44.6,   40.0,   35.3,   32.2,   33.0,   36.4,  999.0,  999.0,  999.0,  999.0,   24.1,   25.9,   27.8,   27.9,   30.1,   26.8,   27.4,   27.4,   25.0,  999.0,   26.0,   23.4,  999.0,   18.8,   22.1,   22.5
2001/03/23 02:25,   11.1,   12.5,   13.2,   13.9,   13.2,   13.1,   13.2,   13.9,   15.0,   16.1,   17.8,   18.4,   18.1,  999.0,   19.5,   22.0,   22.0,   22.3,   24.4,   23.5,   26.2,   28.4,   30.6,   31.5,   31.9,   32.6,   34.3,   34.5,   36.6,   37.1,   38.3,   37.8,   38.9,   39.6,   41.4,   42.3,   41.1,   42.7,   43.2,   44.8,   45.7,   47.3,   46.7,   48.4,   48.6,   46.7,   48.8,   49.4,   49.2,   48.9,   50.5,  999.0,   49.8,   53.2,  999.0,   52.2,  999.0,   44.3,   41.1,   57.2,   56.7,  999.0,   59.4,   62.3,   66.0,   58.7,   61.4,   54.0,   52.3,   46.7,   48.4,   48.1,   51.2,   47.1,   45.5,   47.0,   38.7,   38.9,   39.8,   40.9,   38.5,   38.6,   39.4,   41.5,   40.2,   43.5,   44.7,   47.5,   52.0,  999.0,  999.0,  999.0,   46.0,   47.0,   44.9,   35.6,   33.6,   31.1,   30.5,  999.0,  999.0,  999.0,  999.0,  999.0,   24.4,   25.8,   28.9,   31.3,   35.3,   27.5,   29.6,  999.0,   26.2,  999.0,   25.6,   25.1,   24.5,   21.1,   22.4,  999.0
2001/03/23 02:35,   11.4,   12.2,   12.2,   12.9,   13.1,   13.1,   13.3,   13.3,   13.9,   16.0,   17.3,   17.2,   18.2,   19.6,   19.4,   21.3,   21.8,   23.5,   23.6,   24.7,   25.2,   27.9,   30.9,   30.6,   32.2,   32.6,   33.4,   35.3,   35.1,   36.5,   37.1,   37.8,   38.5,   39.7,   41.3,   41.2,   43.7,   44.2,   44.6,   45.0,   46.2,   46.2,   47.4,   48.3,   47.2,   46.9,   48.8,   48.8,   48.4,   48.5,   49.2,   49.3,   49.3,   51.3,   52.3,   50.3,   53.1,  999.0,   52.3,   58.7,  999.0,   58.1,   60.8,   61.4,   61.3,   59.2,   58.3,   55.2,   46.3,   46.4,   48.4,   50.0,   51.9,   48.6,   47.9,   46.2,   42.4,   39.7,   40.1,   41.6,   40.6,   38.1,   40.1,   40.9,   40.6,   41.8,   47.6,  999.0,   45.0,  999.0,  999.0,   47.6,  999.0,   47.5,   40.2,  999.0,  999.0,   30.1,   31.7,  999.0,   27.6,  999.0,   31.0,  999.0,   24.6,   26.8,   29.9,   31.7,   35.7,  999.0,   27.8,  999.0,   27.0,   28.4,   26.3,   24.0,   23.0,  999.0,   25.2,   21.1
2001/03/23 02:45,   11.2,   11.7,   12.2,   12.2,   12.9,   12.5,   13.2,   13.3,   14.3,   16.1,   16.7,   17.3,  999.0,   18.5,   19.8,   21.3,   21.3,   22.8,   24.4,  999.0,   25.2,   28.4,   30.4,   31.3,   32.9,   32.1,   34.1,   34.9,   34.0,   35.6,   37.3,   38.1,   38.7,   39.0,   41.7,   43.3,   43.9,   44.5,   45.5,   44.6,   46.8,   46.6,   47.0,   49.9,   46.9,   47.8,   47.3,   49.1,   49.7,   48.0,   48.7,   48.8,   49.0,   51.8,   54.5,   53.4,   52.3,   55.9,   54.9,   57.7,   57.5,   60.0,   68.8,  999.0,   61.9,   60.2,   54.5,   56.8,   49.2,   45.8,   47.6,   50.7,   54.3,   51.8,   51.3,   45.4,   47.4,   41.1,   40.5,   43.4,   42.8,  999.0,   41.5,  999.0,   40.5,   46.6,   45.4,  999.0,  999.0,  999.0,  999.0,   53.2,   53.4,   48.6,   47.0,   36.5,   28.7,   31.2,  999.0,  999.0,   28.2,  999.0,  999.0,  999.0,  999.0,   27.4,   30.7,   31.9,   34.1,  999.0,   28.3,   29.7,   26.8,   29.1,   28.0,   24.0,   22.5,   21.1,   22.4,   21.3
2001/03/23 02:55,   10.4,   11.9,   12.1,   12.3,   11.9,   12.5,   13.4,   13.5,   14.8,   17.3,   18.1,   16.6,   19.0,   18.8,   20.7,   20.6,   22.0,   23.1,  999.0,   23.0,   25.7,   28.9,   31.2,   30.7,   31.7,   32.1,   33.6,   34.1,   33.9,   36.1,   37.5,   38.4,   39.2,   39.4,   42.0,   44.9,   45.0,   45.0,   44.9,   44.5,   46.7,   46.3,   46.8,   47.3,   47.3,   46.1,   46.7,   46.6,   49.1,   47.3,   47.9,   48.9,   48.7,   49.9,   51.8,   54.3,   54.8,   52.1,   56.3,   56.1,   59.0,   53.3,   58.7,   60.7,   62.9,   61.0,   55.2,   53.4,   50.9,   44.1,   46.3,   48.2,   52.1,   48.9,   49.8,   46.6,   44.3,   39.9,   40.2,   41.8,   42.1,  999.0,  999.0,   39.5,   40.5,   44.2,  999.0,  999.0,  999.0,  999.0,  999.0,   51.1,   51.2,   45.2,   43.9,  999.0,   32.5,   32.4,   34.0,  999.0,  999.0,  999.0,  999.0,  999.0,   26.6,   26.8,   30.1,   30.0,   31.9,   30.6,  999.0,   28.7,   28.3,   27.1,   27.8,   22.6,   22.2,   20.3,   22.0,   22.3
2001/03/23 03:05,   11.0,   11.6,   12.2,   12.2,   12.2,   12.4,   12.4,   13.0,   15.4,   17.3,  999.0,   17.4,   18.1,   18.8,   20.2,   20.1,   21.7,   23.0,  999.0,   23.8,   25.2,   28.4,   30.7,   30.7,   32.5,   32.1,   33.6,   35.0,   35.3,   36.5,   37.1,   38.1,   38.5,   40.5,   44.2,   44.2,   45.0,   44.0,   45.8,   44.9,   45.9,   46.6,   46.2,   45.0,   46.1,   45.8,   46.2,   47.2,   47.7,   48.3,   48.6,   49.1,   48.6,   50.4,   55.9,   54.6,   51.4,   52.6,   55.8,   58.7,   55.8,   57.8,   60.2,   62.6,   62.8,   64.0,   58.3,   50.8,   54.9,   43.0,   46.5,   47.8,   52.9,   49.1,   48.6,   45.8,   45.4,   45.1,   39.6,   42.8,   44.3,  999.0,   42.2,   40.9,   42.7,   44.1,   47.9,  999.0,  999.0,   52.9,   51.5,   53.7,   48.8,   44.2,  999.0,   31.5,   29.8,   32.1,   33.3,   29.0,   29.8,   30.0,  999.0,   24.1,  999.0,   26.6,   28.8,   28.5,   31.0,   32.5,   31.0,  999.0,   24.5,   26.4,  999.0,   21.3,   22.0,   20.6,  999.0,   21.0
2001/03/23 03:15,   11.8,   11.8,   11.8,   11.7,   12.2,   12.0,   13.1,   13.7,   15.9,   16.8,  999.0,   17.5,   17.8,   19.0,   20.6,   20.3,   21.9,   23.2,  999.0,  999.0,   25.7,   28.3,   30.2,   30.5,   32.0,   31.7,   33.2,   33.6,   34.7,   36.2,   38.0,   37.9,   40.8,   43.3,   45.0,   44.6,   44.0,   44.3,   43.3,   45.8,   45.1,   46.0,   46.8,   45.3,   44.8,   45.9,   45.4,   46.3,   46.9,   47.4,   47.7,   46.0,   47.5,   52.7,   52.2,   54.5,  999.0,   54.3,   55.6,   54.3,   59.7,   59.8,  999.0,   62.3,   59.8,   60.7,   59.9,   48.7,   54.8,   42.7,   46.1,   46.7,   51.0,   50.1,   47.4,   47.9,   42.5,   45.5,   38.6,   41.1,   42.5,   45.8,   34.7,   39.8,   42.5,   42.5,   49.1,  999.0,   51.2,  999.0,   54.2,  999.0,   44.7,   42.3,   39.3,  999.0,   27.8,   31.0,   31.6,   32.3,   28.9,  999.0,  999.0,  999.0,  999.0,   25.4,   28.2,   29.3,   32.5,   35.3,   26.7,   26.7,   26.3,   26.4,   27.9,   28.9,  999.0,   19.2,  999.0,   22.5
2001/03/23 03:25,   10.9,   11.6,   11.4,   11.4,   11.8,   11.9,   12.8,   13.5,   15.5,   16.2,   16.4,   17.1,   18.5,   19.1,   19.8,   19.7,   21.6,   21.3,   21.7,   24.0,   23.6,   26.5,   29.4,   29.8,   31.1,   31.6,   32.3,   34.0,   34.6,   35.9,   36.2,   39.5,   41.7,   44.4,   44.2,   44.2,   44.0,   44.1,   43.8,   44.3,   45.0,   44.3,   45.1,   44.9,   44.6,   45.6,   45.3,   45.3,   46.0,   46.0,   47.0,   48.5,   47.2,   51.1,   50.9,   51.7,  999.0,   52.0,   56.5,   53.5,   59.0,  999.0,   58.6,   62.3,  999.0,   61.9,   60.2,   49.4,   51.4,   43.7,   45.5,   46.1,   47.2,   48.6,   48.9,   46.2,   44.0,   44.6,   39.8,   41.2,   43.9,   47.6,   39.1,   38.7,   41.7,   43.2,   46.7,   46.7,   46.5,   52.2,   54.1,   46.3,   43.6,   42.8,   38.9,  999.0,   28.2,   31.0,   29.4,  999.0,  999.0,  999.0,  999.0,  999.0,   26.1,   25.7,   26.3,   28.5,   28.9,   32.3,  999.0,  999.0,   26.6,   26.6,   25.7,   26.9,   19.6,   21.5,   23.9,   23.8
2001/03/23 03:35,   10.7,   10.8,   11.0,   11.4,   12.2,   12.7,   12.2,   12.7,   16.0,   17.1,   17.0,   17.7,   18.5,   18.6,   19.9,   20.6,   21.7,   22.4,   23.3,   22.4,   24.0,   27.2,   29.0,   29.9,   31.0,   31.6,   33.1,   33.2,   35.0,   36.4,   38.8,   40.7,   43.5,   44.4,   44.3,   43.9,   44.0,   43.7,   45.7,   42.8,   44.0,   44.9,   44.3,   44.6,   44.4,   45.1,   45.1,   45.5,   45.7,   47.2,   46.7,   51.8,   47.7,   50.0,   49.1,   51.0,   56.4,   57.0,   55.4,   55.6,   55.7,  999.0,   56.8,   65.0,   58.8,   62.7,   57.6,   51.3,   52.5,   44.0,   46.3,   49.3,   46.9,   47.5,   48.0,   45.4,   47.3,   41.4,   41.6,   43.6,   46.9,  999.0,   41.3,   42.2,   45.1,   44.8,   44.5,   49.0,   50.7,   55.7,   55.6,   44.9,   44.3,   44.1,   41.9,   30.8,   30.2,   31.0,   34.5,   35.6,  999.0,   23.7,  999.0,  999.0,  999.0,   24.1,   26.8,   29.9,   29.8,   33.1,  999.0,  999.0,   26.0,   27.9,  999.0,   23.6,   20.9,   20.1,   23.9,   23.2
2001/03/23 03:45,   10.9,   10.6,   10.9,   11.6,   12.7,   13.1,   12.9,   14.8,   17.3,   17.2,   16.8,   17.5,   18.5,   18.5,   19.0,   20.3,   21.4,   20.4,   24.1,  999.0,   24.8,   27.6,   28.2,   30.5,   29.7,   31.7,   33.1,   33.3,   35.5,   36.1,   38.7,   41.8,   43.1,   42.5,   44.3,   43.0,   43.8,   43.8,   44.5,   42.2,   44.8,   44.0,   44.9,   44.1,   44.8,   46.4,   45.2,   46.2,   46.5,   42.5,   43.7,   49.5,   48.2,   46.7,   49.7,   50.2,   45.1,   55.6,   53.7,   56.8,   59.8,   60.4,  999.0,  999.0,   53.4,   59.4,   60.1,   51.1,   49.9,   44.6,   44.2,   47.4,   44.6,   46.9,   47.7,   43.9,   45.7,   41.4,   44.3,   46.6,   41.2,   46.4,   41.3,   40.9,   42.8,   44.4,   46.9,   50.0,   50.4,   53.6,   52.5,   45.6,   41.0,   41.7,   41.7,  999.0,   28.2,   30.0,   32.7,   33.2,   26.4,  999.0,  999.0,  999.0,   32.1,   26.2,   28.7,   29.3,   29.5,   34.1,   28.5,   28.2,  999.0,   32.2,   25.8,   25.3,   22.6,   23.6,   23.7,   26.7
2001/03/23 03:55,   10.5,   10.2,   10.7,   11.4,   12.2,   12.9,   13.6,   15.2,   17.2,   16.7,   16.8,   17.2,   18.1,   18.6,   19.3,   20.1,   21.8,   20.8,   21.9,   22.6,   25.0,   28.2,   28.6,   30.4,   30.0,   31.9,   32.9,   34.2,   35.5,   37.0,   39.2,   41.9,   42.7,   41.9,   43.1,   43.9,   43.2,   43.0,   43.8,   42.7,   43.9,   44.5,   44.4,   44.3,   43.7,   45.1,   45.5,   45.2,   46.8,  999.0,   47.4,   48.6,  999.0,   46.5,   50.5,   51.2,   52.7,  999.0,   52.3,   53.8,  999.0,  999.0,  999.0,  999.0,  999.0,   55.2,   57.5,   50.0,   50.1,   45.1,   43.7,   46.8,   44.9,   44.3,   47.4,   42.5,   40.7,   42.1,   47.2,   46.3,   42.0,   46.0,   41.5,   43.2,   42.7,   45.2,   47.8,   51.3,   52.9,   57.2,   51.1,  999.0,   39.7,   40.6,   41.7,  999.0,   27.2,   29.3,   33.6,  999.0,  999.0,  999.0,  999.0,  999.0,   28.8,   26.5,   26.4,   28.4,   31.0,   32.2,   32.1,  999.0,   27.3,  999.0,  999.0,   25.2,   20.9,   21.9,   21.8,   22.3
2001/03/23 04:05,   10.3,   10.7,   11.0,   11.0,   11.6,   11.9,   13.6,   17.0,   16.9,   15.9,   16.9,   17.4,   17.9,   18.3,   18.9,   20.0,   21.5,  999.0,   24.2,  999.0,   24.8,   27.1,   28.9,   29.3,   29.6,   31.7,   32.5,   33.9,   35.9,   36.4,   39.7,   42.2,   42.0,   41.5,   42.7,   42.5,   42.8,   43.5,   43.0,   43.2,   43.1,   43.8,   43.1,   43.8,   44.0,   44.0,   43.9,   45.3,   44.9,   46.0,   47.3,   47.8,   46.1,   47.9,   51.4,   53.7,   56.5,  999.0,  999.0,  999.0,  999.0,   56.8,  999.0,  999.0,   61.9,   55.9,   55.8,   49.7,   51.3,   46.5,   43.2,   46.5,   45.3,   46.0,   49.5,  999.0,   39.8,   44.8,   47.6,   50.8,   44.7,   47.4,   41.1,   44.2,   43.3,   45.4,   50.5,   51.9,   58.1,  999.0,   51.2,   47.9,   41.7,   40.9,   38.4,   35.2,   32.8,   29.2,   32.2,   34.6,   33.1,   28.4,   31.9,   29.7,   29.9,   26.8,   25.8,   26.9,   28.1,   30.0,   30.2,   27.7,   25.6,   27.2,  999.0,   23.9,   20.3,   20.0,   22.0,   20.3
2001/03/23 04:15,   10.5,   10.8,   10.5,   11.2,   11.5,   12.1,   13.8,   16.3,   15.6,   15.5,   16.6,   17.0,   17.6,   18.1,   17.9,   19.8,   21.1,   21.4,  999.0,  999.0,   25.3,   26.9,   28.8,   29.3,   29.6,   32.0,   32.5,   33.9,   35.2,   36.1,   39.9,   42.4,   42.0,   40.9,   43.2,   42.8,   42.3,   42.8,   43.7,   43.0,   43.2,   43.3,   42.0,   43.7,   43.5,   44.7,   44.9,   44.5,   45.0,   46.2,   47.8,   47.5,   49.2,   49.9,   51.7,   55.1,   55.0,   53.6,   57.8,   57.2,  999.0,  999.0,   56.9,  999.0,   58.5,   59.2,   52.9,   51.6,   52.3,   44.6,   45.2,   45.5,   44.9,   48.0,   49.9,   42.9,   42.2,   45.3,   48.1,   50.8,   44.2,   45.0,   41.5,   44.9,  999.0,  999.0,  999.0,   51.1,  999.0,  999.0,   49.9,   53.1,   40.1,   38.4,   41.8,  999.0,   27.2,   26.6,   31.1,   32.1,   34.8,   30.0,   28.7,   29.8,   27.2,  999.0,  999.0,   28.1,  999.0,   29.6,   32.8,   28.6,   25.8,  999.0,  999.0,   21.5,   23.8,   20.3,   23.3,   16.9
2001/03/23 04:25,   10.2,   10.4,   10.5,   10.3,   11.2,   12.2,   15.1,   16.4,   16.0,   15.9,   16.4,   16.8,   17.2,   17.2,   18.0,   19.1,   19.5,   20.7,   21.4,   23.3,   24.4,   27.1,   28.9,   29.4,   29.4,   30.9,   32.0,   33.5,   34.5,   36.7,   40.0,   41.0,   40.8,   41.7,   43.4,   41.8,   41.2,   42.7,   41.9,   42.4,   43.7,   43.5,   41.7,   44.3,   44.2,   44.1,   45.2,   43.8,   45.7,   46.8,   44.7,   46.8,   47.3,   48.2,   46.8,   55.4,   55.4,   58.2,   52.1,   58.2,  999.0,  999.0,   54.6,   57.6,   59.5,   61.3,   52.9,   50.7,   49.9,   43.8,   44.9,   44.2,   45.2,   46.3,   42.4,   43.8,   43.8,   42.9,   44.8,   49.0,   42.1,   45.7,   39.4,   43.0,   41.4,   43.7,  999.0,   51.5,  999.0,  999.0,   46.4,   51.2,   39.0,   39.7,   39.1,   31.5,   28.3,  999.0,  999.0,   29.2,   32.3,   32.4,   29.8,   28.8,  999.0,   28.8,  999.0,   25.5,   28.6,   30.7,   32.3,  999.0,   26.0,   29.2,  999.0,  999.0,   23.3,   19.4,   24.1,  999.0
2001/03/23 04:35,    9.9,   10.6,   10.8,   10.6,   11.4,   13.2,   14.4,   15.9,   15.5,   16.5,   17.1,   16.7,   16.9,   16.1,   18.0,   18.4,   20.2,  999.0,   22.6,   22.7,   24.1,   26.0,   28.6,   29.3,   29.0,   30.5,   32.0,   33.3,   34.7,   36.8,   39.5,   39.8,   41.2,   40.9,   42.3,   42.3,   42.0,   42.1,   42.9,   43.2,   42.9,   44.1,   42.3,   43.3,   43.5,   44.1,   45.2,   43.4,   46.1,   47.7,   48.9,   46.9,   49.2,   48.5,   51.3,   54.9,  999.0,   56.5,   51.5,   58.5,   61.5,  999.0,  999.0,   59.7,   58.7,   61.2,   55.2,   51.1,   46.6,   44.5,   46.3,   44.6,   45.7,   45.3,   40.6,   43.0,   42.8,   42.7,   46.2,   44.7,   41.0,   44.3,   37.9,   41.2,   41.1,   45.5,  999.0,   51.1,  999.0,  999.0,  999.0,   46.5,  999.0,   37.8,   37.3,   28.0,   27.4,  999.0,   26.1,   28.1,   30.4,   32.5,   27.5,   27.9,   28.6,   27.2,   26.2,   25.2,   28.7,   30.7,   32.1,  999.0,   30.4,  999.0,  999.0,  999.0,   24.5,   22.4,   23.4,  999.0
2001/03/23 04:45,   10.5,   10.5,   10.0,   10.6,   11.4,   13.0,   15.1,   16.8,   15.5,   16.0,   16.3,   17.1,   16.7,   17.2,   18.9,   19.2,   20.4,  999.0,   22.1,   22.8,   24.3,   28.4,   28.8,   28.8,   28.7,   30.8,   32.2,   33.0,   35.0,   38.2,   39.6,   38.7,   40.6,   41.6,   42.7,   42.6,   42.2,   42.3,   42.8,   42.3,   44.0,   44.1,   42.7,   42.8,   43.0,   43.7,   44.5,   44.7,   45.3,   45.8,   48.5,  999.0,   50.2,   47.9,   46.1,   53.7,   53.8,   59.3,  999.0,  999.0,  999.0,   60.1,   56.5,   61.3,   58.8,   62.4,   55.2,   52.8,   45.9,   45.1,   44.5,   45.9,   45.8,   45.7,   42.4,   43.2,   46.2,   43.7,   48.3,   43.4,   42.3,   41.2,   40.6,   39.9,   42.8,   47.9,  999.0,   48.8,  999.0,   54.1,   55.5,   48.5,   50.5,   39.4,   36.2,   35.3,   26.7,   27.1,   26.4,   27.8,   30.2,   31.6,   31.4,   26.5,   29.5,   30.9,   27.1,   25.3,   27.9,   30.7,   33.3,  999.0,   29.8,  999.0,  999.0,  999.0,   20.1,  999.0,  999.0,  999.0
2001/03/23 04:55,   10.6,   10.8,   10.3,   10.0,   10.1,   12.1,   14.6,   14.5,   14.1,   15.1,   15.8,   16.1,   16.7,   16.8,   18.0,   20.0,  999.0,  999.0,   20.4,   23.2,   24.7,   26.7,   28.4,   28.9,   28.3,   30.6,   31.3,   32.6,   35.0,   37.6,   39.2,   38.0,   39.9,   40.5,   41.1,   41.8,   43.9,   41.3,   43.0,   43.6,   44.1,   43.6,   43.6,   42.4,   42.0,   43.4,   44.8,   44.7,   46.5,   44.0,   46.4,   45.3,   46.7,   46.6,   49.6,   54.5,   53.5,   56.7,  999.0,  999.0,   55.3,   55.6,  999.0,  999.0,   57.8,   61.8,   55.0,   53.4,   42.8,   43.6,   45.3,   46.8,   46.1,   46.2,   41.7,   44.3,   49.7,   45.7,   47.2,   42.7,   41.1,   39.1,   40.5,   41.3,   45.8,   48.5,   45.4,   49.8,  999.0,  999.0,  999.0,   50.4,  999.0,  999.0,   36.0,   34.7,  999.0,   25.5,   23.3,  999.0,   29.7,   31.2,   33.5,  999.0,   29.1,   29.5,  999.0,   23.8,   26.1,  999.0,   28.7,   25.7,   27.7,   28.4,   28.2,  999.0,  999.0,   21.4,  999.0,   18.1
2001/03/23 05:05,   10.4,   10.7,   10.4,   11.2,   11.8,   12.9,   14.6,   15.6,   14.3,   15.6,   16.0,   16.2,   16.1,   17.0,  999.0,   19.7,  999.0,  999.0,   21.5,   23.5,   24.0,   26.4,   27.5,   28.0,   27.9,   29.6,   30.3,   32.6,   34.0,   36.7,   38.5,   38.8,   38.3,   39.8,   40.5,   41.7,   43.4,   41.8,   42.6,   44.0,   44.7,   43.6,   43.8,   42.4,   42.2,   43.4,   44.0,   46.1,   45.1,   45.2,   45.7,   47.7,   47.1,   46.3,   48.8,   52.5,   55.2,   58.4,   57.4,   61.3,   55.0,  999.0,  999.0,  999.0,   59.6,   61.0,   55.5,   52.4,   42.9,   44.2,   47.3,   48.9,   40.9,   46.7,   42.3,   45.9,   47.0,   45.9,   46.1,   44.0,   42.4,   38.2,   39.9,   39.5,   42.6,  999.0,   46.7,  999.0,  999.0,   54.8,  999.0,   49.0,  999.0,   35.2,   36.1,  999.0,   34.6,  999.0,  999.0,  999.0,   28.5,   30.6,   29.8,   25.9,   25.4,   28.9,  999.0,   22.6,   26.1,   29.2,   30.2,  999.0,   29.1,  999.0,  999.0,  999.0,  999.0,   24.8,   29.0,   23.5
2001/03/23 05:15,    9.8,   10.7,   11.4,   12.5,   13.1,   13.2,   14.4,   14.6,   14.7,   15.8,   15.4,   15.4,   16.3,   17.3,  999.0,  999.0,  999.0,   21.4,   21.5,   21.3,   24.0,   25.5,   26.9,   27.4,   28.2,   28.4,   29.2,   31.1,   32.9,   34.6,   37.0,   38.6,   37.2,   38.7,   39.8,   40.8,   41.7,   42.0,   42.4,   43.6,   45.5,   45.3,   45.0,   43.2,   41.8,   43.5,   44.3,   44.9,   45.1,   45.1,   45.0,   44.9,  999.0,  999.0,   46.6,   51.5,   47.0,   58.1,   58.3,   54.5,  999.0,  999.0,   57.4,  999.0,   59.9,   60.1,   53.7,   52.1,   42.6,   44.7,   48.1,   49.5,   44.6,   44.7,   44.0,   42.5,  999.0,   43.0,   46.5,   41.9,   41.4,   38.4,   39.8,   40.2,   44.4,   45.9,   48.2,  999.0,  999.0,  999.0,  999.0,   48.7,  999.0,  999.0,   33.5,   32.2,  999.0,  999.0,  999.0,  999.0,  999.0,   29.3,   28.8,   27.7,   26.4,   25.8,  999.0,   24.2,   25.2,   29.4,   31.4,   29.6,  999.0,   31.9,  999.0,   27.9,  999.0,  999.0,   23.2,   20.9
2001/03/23 05:25,   10.6,   11.6,   12.1,   12.7,   13.0,   13.9,   14.6,   14.1,   15.0,   15.4,   15.9,   15.9,   17.2,   16.7,  999.0,  999.0,  999.0,  999.0,   20.3,   21.4,   22.9,   25.4,   26.4,   26.6,   27.2,   27.9,   28.6,   30.4,   32.1,   34.2,   36.1,   37.1,   37.5,   37.9,   37.9,   37.5,   38.8,   40.4,   41.6,   42.0,   43.2,   45.4,   45.6,   45.7,   43.4,   42.5,   43.8,   45.1,   46.2,   43.8,   45.1,   46.5,  999.0,   44.7,   46.7,   48.7,   53.8,   56.1,   60.1,  999.0,  999.0,  999.0,  999.0,   59.9,   58.4,   58.4,   52.7,   51.2,   42.8,   44.8,   47.9,   49.5,   44.2,   45.0,   44.0,   43.3,  999.0,   38.9,   44.5,   42.8,   41.6,   36.5,   35.7,   41.9,  999.0,   43.4,  999.0,  999.0,  999.0,  999.0,  999.0,   47.0,   46.3,   44.0,   30.9,  999.0,  999.0,  999.0,  999.0,  999.0,   28.5,   32.5,  999.0,   27.1,   30.9,   -6.4,  999.0,   26.1,   29.1,   31.2,   32.6,  999.0,   27.4,   30.8,   32.2,  999.0,   22.2,   23.8,   22.1,   21.5
2001/03/23 05:35,   11.1,   11.8,   12.0,   12.8,   13.6,   14.7,   14.9,   15.8,   15.6,   15.4,   15.8,   16.5,  999.0,    0.1,  999.0,  999.0,   20.7,  999.0,   20.9,   23.2,   23.7,   25.9,   26.9,   27.3,   28.0,   28.0,   29.0,   30.8,   33.3,   35.4,   36.2,   36.6,   37.2,   36.5,   36.5,   37.1,   38.6,   40.1,   41.1,   41.2,   42.8,   44.9,   44.7,   45.0,   45.1,   43.6,   44.3,   45.1,   47.2,   44.1,   44.5,   45.9,   45.8,   45.6,   47.1,   50.8,   54.5,   57.8,   61.8,  999.0,  999.0,  999.0,  999.0,   60.8,   57.7,   57.3,   55.8,   48.2,   43.1,   44.5,   45.4,   46.6,   49.1,   43.0,   46.2,   44.5,   44.2,   39.9,   43.4,   42.7,   39.1,   35.8,   36.3,   38.8,   42.5,  999.0,   29.5,  999.0,  999.0,  999.0,  999.0,   45.8,  999.0,   36.9,  999.0,  999.0,  999.0,  999.0,  999.0,   28.5,  999.0,   25.4,   30.3,  999.0,   30.8,  999.0,   29.8,   26.7,   31.5,   31.1,   32.2,   30.7,  999.0,   31.2,   29.7,   33.7,   26.9,  999.0,   21.5,   20.9
2001/03/23 05:45,   11.9,   12.7,   13.2,   13.9,   15.8,   16.0,   16.1,   16.8,   16.2,   17.1,   17.2,   17.7,  999.0,  999.0,  999.0,   21.3,  999.0,   20.9,   21.0,   22.6,   24.7,   25.5,   27.3,   27.5,   27.6,   28.6,   29.4,   30.7,   32.9,   34.7,   36.2,   36.3,   36.3,   36.1,   36.2,   37.2,   37.7,   40.2,   41.0,   40.9,   42.7,   43.6,   44.0,   43.9,   44.2,   43.2,   45.1,   44.7,   46.1,   45.1,   45.1,   45.8,   44.5,   45.7,   49.7,   54.2,   55.6,   56.7,  999.0,  999.0,  999.0,  999.0,   56.1,   58.7,   59.3,   56.4,   56.2,   48.5,   42.5,   43.5,   46.4,   45.6,   50.0,   43.0,   45.7,   41.1,   43.6,   40.8,   43.7,   42.9,   38.2,   36.5,   37.4,   39.4,   40.5,   42.4,   48.3,   47.3,  999.0,  999.0,   46.7,   48.9,  999.0,   37.7,   40.2,   33.8,  999.0,  999.0,  999.0,  999.0,  999.0,   31.4,  999.0,   30.5,   29.9,  999.0,  999.0,   27.2,   29.0,   32.0,   29.3,   29.1,  999.0,  999.0,   28.7,   23.8,   24.8,   20.2,   21.3,  999.0
2001/03/23 05:55,   11.6,   12.8,   14.0,   14.0,   14.9,   15.7,   15.5,   16.2,   15.7,   16.1,   16.5,   17.7,  999.0,    0.1,  999.0,  999.0,  999.0,  999.0,   21.4,   23.1,   25.0,   27.3,   27.3,   27.9,   28.0,   29.3,   28.6,   30.3,   32.4,   34.4,   35.0,   36.0,   36.0,   35.7,   34.6,   35.7,   36.1,   37.7,   39.2,   40.8,   39.9,   41.0,   42.2,   42.7,   42.6,   42.5,   43.4,   45.0,   44.6,   45.1,   45.2,   45.6,   47.4,   45.4,   48.5,   51.7,   53.0,   57.2,  999.0,   56.5,   54.5,   55.2,   59.8,   59.1,   55.5,   57.2,   54.3,   46.1,   43.6,   42.6,   45.8,   47.1,   47.8,   46.9,  999.0,   43.2,   43.0,   40.1,   44.2,   39.9,   40.6,   35.3,   35.8,   37.5,   41.7,  999.0,   46.2,  999.0,  999.0,  999.0,  999.0,   49.4,  999.0,  999.0,  999.0,   33.0,   32.2,  999.0,  999.0,  999.0,   31.0,  999.0,  999.0,  999.0,   27.6,   32.5,  999.0,  999.0,   28.1,   30.4,   32.3,   24.7,   29.5,  999.0,   29.0,   29.8,   22.9,  999.0,   19.1,   18.8
2001/03/23 06:05,   11.5,   12.7,   13.3,   14.1,   15.0,   15.3,   15.9,   15.4,   15.5,   16.0,   16.4,   17.7,   -0.1,  999.0,   -0.6,  999.0,    0.1,  999.0,   21.9,   23.7,   24.4,   26.4,   27.0,   26.9,   26.4,   28.0,   28.6,   30.4,   32.2,   33.8,   34.9,   35.6,   35.2,   34.6,   34.5,   35.5,   35.0,   35.4,   37.7,   38.9,   41.1,   41.2,   42.0,   42.3,   42.8,   41.5,   40.9,   42.1,   43.7,   43.9,   43.3,   45.2,   42.8,   44.6,   46.3,   49.9,   51.3,   56.9,   57.0,  999.0,   55.5,   58.1,   59.8,   57.3,   54.3,   57.4,   49.7,   45.6,   42.8,   42.3,   44.8,   44.8,   49.4,   46.6,   45.9,   43.8,  999.0,  999.0,   43.2,   37.6,   39.4,   35.8,   34.7,   36.3,   40.1,  999.0,  999.0,  999.0,  999.0,  999.0,   49.4,   49.0,  999.0,  999.0,  999.0,   30.8,   31.2,  999.0,  999.0,  999.0,   27.6,   34.2,  999.0,  999.0,   29.8,   28.3,  999.0,   27.9,   30.4,   30.4,   32.0,   29.3,  999.0,  999.0,  999.0,   32.6,  999.0,  999.0,   19.2,  999.0
2001/03/23 06:15,   12.2,   13.0,   13.6,   14.3,   15.1,   14.8,   15.3,   15.3,   15.3,   16.0,   16.6,  999.0,   -0.1,  999.0,    0.2,  999.0,  999.0,  999.0,  999.0,   23.6,   24.7,   26.2,   26.2,   26.5,   25.5,   26.4,   28.3,   31.0,   33.1,   35.2,   35.4,   35.0,   34.8,   35.3,   34.3,   35.5,   35.2,   36.5,   38.4,   41.6,   42.2,   41.9,   41.5,   40.8,   40.6,   40.6,   40.1,   41.2,   42.7,   43.7,   41.2,   43.6,   43.2,   42.9,   46.3,   50.7,   53.9,   57.3,   52.6,   50.3,   53.8,   59.2,   61.3,   54.4,   57.6,   57.4,   50.6,   43.7,   44.7,   43.8,   45.8,   46.5,   50.7,   46.2,   45.1,  999.0,   44.3,   40.6,   44.6,   40.0,   41.6,   34.9,   34.4,   37.3,   40.7,   42.5,  999.0,  999.0,  999.0,  999.0,  999.0,  999.0,   50.5,  999.0,  999.0,  999.0,   30.7,  999.0,  999.0,  999.0,   28.0,   30.5,  999.0,  999.0,   28.2,   29.1,  999.0,   27.0,   30.0,   30.2,   29.0,   25.9,   30.0,   26.7,  999.0,   22.7,  999.0,  999.0,   15.7,  999.0
2001/03/23 06:25,   11.2,   12.0,   13.3,   13.6,   14.2,   14.7,   14.5,   14.7,   14.3,   15.2,   16.0,   17.3,  999.0,  999.0,  999.0,  999.0,  999.0,  999.0,   20.2,   22.1,   24.4,   25.3,   24.5,   24.1,   25.5,   26.2,   28.3,   30.6,   32.8,   34.8,   34.1,   34.4,   34.0,   33.9,   33.2,   33.7,   34.9,   36.5,   39.9,   40.9,   42.6,   42.2,   42.0,   41.1,   41.8,   41.9,   41.0,   41.3,   42.4,   43.3,   41.8,   41.2,   42.2,   43.9,   46.8,   50.1,   55.4,   56.0,   52.9,   53.4,   56.5,   57.9,   58.6,   54.6,   59.0,   55.8,   49.2,   43.6,   43.7,   45.7,   45.9,   48.5,   51.8,   51.4,   45.4,   44.3,   46.6,   40.1,   47.3,   41.9,  999.0,   36.4,   37.2,   38.6,   42.0,  999.0,  999.0,  999.0,  999.0,  999.0,  999.0,   51.9,  999.0,  999.0,   39.1,  999.0,  999.0,  999.0,  999.0,  999.0,  999.0,   32.7,  999.0,  999.0,  999.0,   30.9,  999.0,  999.0,   28.5,   29.1,   31.3,   27.7,   29.6,   30.3,   29.2,  999.0,   20.4,   18.7,   16.1,   16.3
2001/03/23 06:35,   11.3,   12.4,   12.7,   13.9,   14.5,   14.6,   14.8,   14.1,   14.5,   15.2,   15.9,  999.0,   -0.1,  999.0,   -0.3,  999.0,  999.0,  999.0,   19.9,   21.7,   23.7,   24.1,   24.5,   23.8,   24.1,   25.7,   27.6,   30.0,   31.5,   33.0,   34.3,   32.8,   33.4,   33.7,   33.3,   33.3,   34.2,   36.3,   39.6,   41.1,   41.0,   40.7,   39.6,   39.7,   40.4,   40.3,   40.1,   40.2,   41.2,   42.7,   43.3,   41.7,   42.7,   45.8,   48.8,   53.1,   55.8,  999.0,  999.0,   53.6,  999.0,   57.3,   58.5,   53.4,   58.4,   56.2,   47.7,   44.2,   43.5,   47.2,   44.7,   49.7,   51.3,   51.6,   49.5,   47.0,   47.1,  999.0,   46.7,   41.5,   39.5,   37.2,   38.5,   39.7,   42.9,   42.8,  999.0,  999.0,  999.0,   48.4,  999.0,  999.0,  999.0,  999.0,   37.9,  999.0,   32.2,  999.0,  999.0,  999.0,  999.0,   35.2,  999.0,   34.6,  999.0,   29.6,   28.1,   25.0,   27.0,   29.7,   29.0,   26.0,   29.6,  999.0,  999.0,   28.7,   16.8,   20.5,   14.0,   15.5
2001/03/23 06:45,   11.8,   13.1,   13.4,  999.0,   14.0,   13.7,   14.4,   14.7,   15.2,   15.7,   16.9,   17.0,  999.0,  999.0,  999.0,  999.0,  999.0,  999.0,  999.0,   23.2,   25.1,   25.3,   24.9,   23.9,   23.9,   26.3,   27.8,   29.6,   32.3,   31.6,   32.1,   31.8,   32.1,   31.5,   31.0,   33.0,   34.4,   37.8,   37.9,   38.9,   38.8,   37.7,   38.3,   38.4,   37.5,   39.2,   39.9,   39.6,   40.1,   42.4,   41.7,   44.9,   43.6,   46.7,   50.0,   53.3,   53.1,   56.4,  999.0,  999.0,   54.8,   57.6,   57.7,   54.3,   58.2,   55.2,   49.5,   46.9,   43.0,   45.0,   44.4,   49.1,   51.8,   52.1,   47.7,   46.8,   44.8,   48.9,   41.9,   42.6,  999.0,   39.6,   35.1,   39.2,  999.0,  999.0,  999.0,  999.0,  999.0,  999.0,  999.0,  999.0,  999.0,  999.0,   36.9,  999.0,  999.0,  999.0,  999.0,  999.0,  999.0,  999.0,  999.0,   30.8,  999.0,  999.0,  999.0,   28.8,  999.0,  999.0,  999.0,  999.0,   28.4,  999.0,   28.0,  999.0,  999.0,   17.8,   13.6,   15.8
2001/03/23 06:55,   11.9,   13.0,   13.9,   14.3,   15.2,   14.3,   14.1,   14.3,   15.1,   16.0,   16.2,   16.8,  999.0,  999.0,  999.0,  999.0,  999.0,  999.0,   20.2,   21.7,   23.3,   23.7,   23.8,   24.1,   24.8,   27.4,   29.4,   30.0,   31.2,   32.0,   32.3,   31.3,   31.2,   31.1,   31.8,   33.3,   34.7,   36.1,   37.9,   38.4,   38.7,   39.1,   38.8,   38.8,   38.8,   39.2,   38.9,   39.5,   40.5,   41.4,   42.7,   42.0,   43.3,   46.9,   48.3,   52.9,   51.0,   55.8,   53.4,  999.0,   54.2,   57.2,   56.1,   53.4,   58.9,   54.6,   50.1,   48.1,   41.4,   45.3,   43.9,   49.0,   52.1,   52.4,   47.3,   47.2,   44.6,   48.6,   40.9,   43.5,   38.1,   37.8,   33.8,   38.0,   40.0,  999.0,  999.0,  999.0,  999.0,  999.0,   50.8,  999.0,  999.0,  999.0,   35.9,   35.6,  999.0,  999.0,  999.0,   32.4,  999.0,   38.2,  999.0,   32.2,   32.7,  999.0,  999.0,   29.9,   28.8,  999.0,  999.0,  999.0,  999.0,   29.3,  999.0,  999.0,   20.6,   11.6,   13.0,   13.7
2001/03/23 07:05,   12.4,   13.4,   14.5,   14.9,   14.5,   14.1,   13.9,   14.0,   15.6,   15.6,   16.6,   17.6,  999.0,  999.0,  999.0,  999.0,   19.0,   19.6,   19.7,   21.9,   23.1,   23.2,   23.2,   23.7,   25.8,   28.9,   30.9,   30.8,   30.6,   31.3,   31.0,   31.1,   29.8,   29.8,   30.8,   32.8,   34.1,   35.7,   36.8,   38.8,   38.8,   38.6,   38.2,   38.1,   38.3,   38.2,   38.9,   38.9,   38.7,   41.0,   41.7,   42.5,   42.6,   46.1,   49.1,   52.4,  999.0,   53.2,   53.8,  999.0,   52.7,   54.8,   57.6,   53.9,   58.7,   55.0,   50.9,   49.7,   43.9,   47.9,   43.5,   48.8,   52.7,   50.3,   49.2,   44.0,   45.4,   47.9,   39.6,   39.6,   38.2,   37.7,   36.4,   36.9,   42.5,   41.9,  999.0,  999.0,  999.0,  999.0,   52.3,  999.0,  999.0,  999.0,   33.8,   37.2,  999.0,  999.0,  999.0,   35.4,  999.0,   41.8,   34.9,   33.7,   31.6,   33.5,  999.0,   30.5,   28.7,   30.3,  999.0,   28.9,   30.7,   34.8,  999.0,  999.0,  999.0,   20.4,   11.4,   11.6
2001/03/23 07:15,   11.8,   13.0,   14.6,   15.1,   13.6,   13.4,   13.7,   14.0,   15.1,   15.9,   16.2,   17.2,  999.0,   16.4,  999.0,   18.0,   18.7,   19.7,   19.8,   20.1,   21.6,   23.1,   22.0,   23.8,   28.4,   30.3,   30.7,   30.5,   30.6,   30.3,   29.4,   29.5,   29.6,   28.6,   29.9,   32.4,   33.6,   35.7,   36.6,   37.9,   38.2,   37.2,   37.6,   37.4,   37.1,   37.7,   38.2,   38.9,   39.8,   40.1,   41.0,   41.8,   41.6,   45.3,   46.3,   54.4,  999.0,  999.0,  999.0,   51.4,   53.0,   56.8,   56.0,   56.6,   58.2,   56.6,   53.9,   48.3,   47.5,   46.6,   42.6,   48.5,   50.0,   50.9,   50.2,   45.3,   46.1,   43.7,   39.0,   38.8,   37.8,   37.7,   37.5,   37.1,   38.7,   40.9,   42.5,  999.0,  999.0,   45.8,  999.0,  999.0,   45.4,  999.0,  999.0,   34.6,   36.7,  999.0,  999.0,   30.1,   32.4,   37.6,   35.6,   35.5,   27.7,   30.9,  999.0,   28.9,   32.0,  999.0,   29.5,   31.2,   31.8,  999.0,  999.0,  999.0,   25.0,   21.9,   11.0,   11.3
2001/03/23 07:25,   11.5,   13.2,   14.4,   15.0,   14.8,   13.3,   13.4,   14.0,   14.6,   15.4,   16.3,   16.6,   15.9,  999.0,  999.0,  999.0,   20.8,   19.7,   19.6,   20.9,   21.1,   21.6,   21.4,   25.4,   28.9,   30.3,   30.5,   31.0,   29.5,   29.6,   29.2,   29.6,   29.3,   28.1,   29.0,   31.6,   33.1,   35.3,   37.9,   39.2,   37.9,   37.0,   37.1,   37.7,   38.1,   38.4,   37.4,   39.9,   39.2,   41.6,   43.5,   41.7,   44.5,   45.8,   46.8,   52.3,   49.2,   51.3,   55.6,  999.0,   50.4,   57.2,   58.0,   59.1,   56.8,   60.9,   54.7,   48.5,   48.2,   45.1,   44.8,   49.6,   49.4,   47.9,   49.3,   44.7,   45.8,   44.0,   37.3,   37.0,   36.7,   36.3,   36.3,   38.3,  999.0,   43.3,  999.0,  999.0,  999.0,  999.0,   48.3,   46.2,   44.8,  999.0,  999.0,   33.9,  999.0,  999.0,  999.0,  999.0,   36.9,   33.0,   36.5,   31.8,   28.2,   28.4,   30.6,   28.2,   31.3,  999.0,  999.0,  999.0,   32.0,   34.8,  999.0,  999.0,   21.5,   12.8,   10.8,   12.4
2001/03/23 07:35,   11.5,   13.2,   14.6,   14.6,   14.8,   13.1,   12.2,   13.0,   14.0,   15.2,   16.0,   15.6,   15.8,  999.0,   15.9,   17.9,   19.2,   19.8,   19.0,   18.8,   20.7,   20.6,   22.8,   27.2,   28.7,   29.4,   29.8,   29.5,   29.0,   28.9,   28.7,   28.0,   28.4,   27.9,   28.9,   32.0,   33.5,   35.0,   37.3,   36.9,   37.5,   37.3,   36.9,   36.5,   37.3,   37.8,   37.7,   39.4,   39.2,   40.9,   39.1,   41.8,   45.0,   46.6,   44.6,   49.5,  999.0,   47.7,   53.8,   46.5,   48.8,   52.7,   56.7,   54.4,   55.7,   60.8,   51.8,   50.7,   50.4,   39.4,   44.8,   47.6,   46.0,   48.3,   51.4,   44.5,   43.9,   44.2,   39.4,   36.9,   36.6,   36.7,   34.6,   37.0,   40.2,  999.0,  999.0,  999.0,  999.0,  999.0,  999.0,   42.1,   28.7,  999.0,  999.0,   37.1,   34.1,   35.7,  999.0,  999.0,   31.5,   33.3,   36.3,   30.5,   30.2,   28.1,   28.9,  999.0,   32.1,   28.9,  999.0,  999.0,   30.3,   35.5,  999.0,   24.6,   22.5,   10.6,   10.9,   10.9
2001/03/23 07:45,   12.4,   13.5,   14.1,   14.3,   13.1,   13.6,   13.2,   13.2,   14.1,   14.6,   16.0,   16.5,   16.9,   16.7,  999.0,  999.0,   17.6,   18.2,   17.6,   18.3,   18.8,   21.3,   21.1,   25.8,   28.4,   28.5,   28.9,   29.4,   28.5,   27.7,   27.5,   27.7,   27.1,   27.7,   29.1,   31.8,   33.5,   36.2,   37.4,   38.5,   37.9,   37.4,   37.1,   37.2,   36.8,   37.7,   38.1,   37.7,   39.0,   40.8,   39.2,   41.1,   42.1,   44.7,   46.0,   45.5,   49.2,  999.0,   51.1,  999.0,   48.0,   52.4,   56.0,   51.2,   55.9,   62.5,   51.3,   49.5,   52.5,   41.5,   45.4,   49.2,   49.9,   47.0,   47.2,   46.1,   43.6,   46.3,   41.7,   36.7,   37.7,   37.6,   34.6,   37.3,  999.0,  999.0,  999.0,  999.0,  999.0,   48.6,   50.4,  999.0,  999.0,  999.0,   33.3,   38.5,  999.0,  999.0,  999.0,  999.0,   33.9,   38.1,   38.6,  999.0,  999.0,   31.5,  999.0,   32.7,   33.5,   32.8,  999.0,  999.0,   33.1,  999.0,   29.3,   27.1,   23.4,   13.5,   11.3,    9.5
2001/03/23 07:55,   12.2,   13.4,   14.0,   14.6,   13.5,   12.5,   12.7,   13.2,   14.0,   14.4,   15.5,   15.9,   16.5,   16.5,   15.6,   17.0,   18.5,   19.4,   19.5,   18.1,   19.2,   20.8,   21.3,   25.6,   28.0,   28.5,   27.8,   28.5,   27.6,   27.0,   26.9,   27.9,   27.7,   28.6,   30.3,   32.6,   34.4,   36.9,   38.5,   38.6,   38.0,   38.0,   38.2,   37.5,   36.9,   36.3,   38.0,   39.5,   40.5,   40.6,   40.2,   41.2,   43.4,   45.5,   46.8,   47.0,   48.9,   47.3,   49.5,  999.0,   49.8,   53.7,   58.4,   51.6,   58.0,   61.3,   52.4,   50.0,   49.6,   50.3,   46.3,   50.3,   50.7,   52.8,   50.7,   45.2,   42.9,   45.1,   40.7,   39.4,   37.3,   36.6,   36.6,   39.1,   43.8,   44.4,  999.0,  999.0,  999.0,  999.0,   48.4,   37.6,  999.0,   36.9,   35.1,  999.0,   34.8,   33.0,  999.0,  999.0,   32.8,   37.5,   41.8,  999.0,   30.3,   29.2,  999.0,   28.8,   32.9,  999.0,  999.0,   28.4,   30.5,  999.0,  999.0,   23.6,   18.6,   12.0,   10.4,    7.4
2001/03/23 08:05,   12.2,   13.7,   14.2,   14.9,   13.7,   11.9,   12.9,   14.1,   14.8,   14.9,   15.9,   16.3,   15.9,   15.9,   15.7,   17.9,   18.5,   18.4,   17.5,   17.7,   18.2,   19.2,   21.1,   25.6,   27.1,   26.8,   27.6,   27.7,   27.4,   26.5,   26.9,   26.3,   26.4,   28.4,   29.8,   31.7,   34.2,   36.5,   37.3,   37.6,   37.8,   37.9,   37.3,   38.1,   38.3,   38.9,   38.5,   39.2,   40.4,   40.8,   41.6,   40.7,   43.5,   46.1,   46.7,   47.2,   48.3,   51.0,   49.1,   47.5,  999.0,   54.3,   56.0,   52.7,   59.1,   56.8,   53.3,   51.4,   52.3,  999.0,   51.3,   49.9,   53.4,  999.0,   44.0,   47.2,   45.8,   43.3,   44.0,   39.4,   36.3,   35.9,   37.2,   39.9,   47.0,  999.0,  999.0,  999.0,  999.0,  999.0,  999.0,  999.0,   41.5,   38.8,  999.0,  999.0,  999.0,  999.0,   31.0,  999.0,  999.0,   35.3,  999.0,   41.7,  999.0,  999.0,   30.3,  999.0,   30.6,  999.0,  999.0,  999.0,   28.4,  999.0,  999.0,  999.0,  999.0,   14.5,   10.4,    9.5
2001/03/23 08:15,   12.0,   13.3,   13.9,   13.9,   12.3,   12.1,   11.7,   14.2,   14.6,   15.6,   16.1,   15.8,  999.0,  999.0,   14.9,   16.3,   17.7,   16.3,   15.5,   15.9,   17.6,   18.4,   20.5,   25.2,   27.1,   25.9,   26.3,   26.8,   26.5,   26.6,   26.1,   25.0,   26.3,   27.7,   28.3,   29.6,   32.0,   35.8,   36.4,   36.5,   36.1,   37.6,   37.4,   37.8,   38.2,   37.6,   38.1,   38.3,   39.2,   39.4,   41.1,   41.4,   43.0,   45.9,  999.0,   45.5,  999.0,   46.8,  999.0,  999.0,   52.7,   52.8,   56.6,   52.3,   56.3,   62.1,   54.3,   54.8,   51.3,  999.0,  999.0,   55.3,   47.8,  999.0,   47.7,   46.6,   43.5,   43.8,   41.9,   38.7,   36.3,   36.8,   37.7,   40.8,   44.6,   42.7,   40.9,  999.0,  999.0,  999.0,   43.7,  999.0,   42.4,   42.3,  999.0,  999.0,  999.0,  999.0,  999.0,  999.0,  999.0,  999.0,   34.8,  999.0,   28.6,   32.2,   29.0,   28.8,   30.4,   30.3,   25.0,  999.0,   31.3,  999.0,  999.0,  999.0,   22.6,   11.4,   11.0,    9.8
2001/03/23 08:25,   12.0,   13.1,   13.8,   14.1,   13.2,   12.3,   13.5,   14.2,   15.8,   16.2,   17.1,  999.0,  999.0,   15.2,   17.3,   18.1,   18.4,   15.1,   18.0,   17.6,   18.3,   18.7,   21.4,   24.5,   27.2,   25.9,   26.5,   25.8,   26.0,   25.5,   25.0,   25.7,   27.3,   27.5,   28.1,   29.4,   32.5,   34.7,   35.6,   36.5,   36.7,   36.8,   36.7,   36.2,   36.4,   37.4,   37.3,   38.0,   38.2,   38.9,   39.0,   41.6,   42.6,   42.7,   43.7,   44.9,   45.7,   45.9,  999.0,   45.6,   48.3,   48.8,   50.9,   49.4,   55.4,   58.6,   50.6,   50.1,   50.7,   52.9,   49.0,   47.5,   48.4,   48.0,   45.9,   44.0,   41.9,   38.8,   38.2,   41.4,  999.0,   33.8,   35.3,   38.3,   40.9,   42.1,   42.9,  999.0,  999.0,  999.0,  999.0,  999.0,  999.0,   38.1,   37.7,  999.0,   28.0,  999.0,  999.0,  999.0,  999.0,  999.0,   34.3,  999.0,  999.0,  999.0,   27.5,  999.0,   30.1,  999.0,  999.0,  999.0,   26.4,  999.0,  999.0,   21.7,   21.4,   12.0,    9.7,    9.9
2001/03/23 08:35,   11.9,   12.9,   13.7,   14.1,   12.1,   11.9,   12.9,   13.6,   14.6,   16.1,   15.7,   14.9,   16.4,   18.3,   18.0,   17.5,   16.6,   17.3,   17.8,   17.4,   17.9,   19.1,   21.4,   23.7,   26.2,   25.9,   25.8,   25.9,   25.9,   25.5,   25.2,   26.0,   26.4,   27.2,   28.0,   29.7,   32.4,   35.2,   35.9,   35.7,   36.5,   37.5,   36.5,   36.9,   35.7,   36.8,   38.2,   36.6,   38.2,   38.4,   39.1,   39.5,   40.5,   41.6,   43.1,  999.0,   44.3,   45.6,   45.7,   46.0,   47.2,   51.1,   51.5,   51.5,   56.5,   58.1,   54.2,  999.0,  999.0,   46.9,   52.2,   49.9,   50.7,   47.8,   48.2,   45.5,   45.0,   42.3,   38.7,   43.2,  999.0,   34.5,   35.1,   39.5,   41.0,   40.8,   41.9,   42.7,  999.0,  999.0,  999.0,  999.0,   38.4,   39.8,   38.1,   32.3,  999.0,  999.0,  999.0,  999.0,  999.0,   35.2,   30.7,   35.9,  999.0,  999.0,   26.8,  999.0,   28.6,  999.0,  999.0,  999.0,   29.0,  999.0,  999.0,  999.0,  999.0,   10.1,   11.0,   12.6
2001/03/23 08:45,   11.9,   13.1,   14.0,   14.3,   12.6,   12.2,   13.5,   13.9,   14.2,   15.6,   16.8,   16.2,   16.4,   16.2,   16.6,   16.4,   16.1,   15.5,   15.4,   16.0,   17.4,   19.0,   21.3,   23.0,   24.9,   26.0,   25.8,   24.9,   25.2,   24.8,   25.3,   27.2,   27.1,   27.6,   28.2,   31.1,   34.0,   35.1,   35.3,   35.3,   36.6,   35.4,   35.8,   35.9,   36.8,   37.2,   38.1,   38.8,   38.3,   39.1,   39.3,   40.2,   42.7,   42.0,   43.2,   45.4,   45.6,   43.9,   43.9,   45.7,   47.3,   52.1,   51.3,   49.4,   55.2,   55.9,   52.7,  999.0,  999.0,   49.5,   55.1,   47.6,   53.0,   47.2,  999.0,   43.4,   46.5,  999.0,   41.1,   41.8,  999.0,   35.1,   35.7,   40.0,   42.7,   44.4,   40.2,  999.0,  999.0,  999.0,  999.0,  999.0,   41.6,  999.0,  999.0,  999.0,  999.0,   42.4,  999.0,  999.0,  999.0,  999.0,   34.4,   37.0,   27.7,  999.0,   28.6,   29.5,   32.2,  999.0,  999.0,  999.0,  999.0,  999.0,  999.0,  999.0,  999.0,   13.0,   11.4,  999.0
2001/03/23 08:55,   12.2,   13.1,   14.4,   14.3,   13.3,   12.9,   13.0,   13.7,   14.6,   14.6,  999.0,   17.2,   18.0,   17.8,   17.4,   18.4,   18.2,   15.4,   14.4,   14.5,   17.0,   18.9,   19.9,   22.3,   25.1,   24.9,   24.9,   23.5,   24.0,   24.6,   23.3,   25.0,   26.2,   26.6,   28.2,   30.0,   32.1,   33.4,   34.6,   33.9,   34.6,   36.1,   34.5,   35.0,   35.9,   35.3,   37.7,   37.9,   38.0,   39.7,   39.7,   41.6,   39.7,   41.1,   42.2,   43.6,   44.9,  999.0,  999.0,   42.1,   46.8,   49.9,   49.6,   49.9,   53.5,   55.6,   56.3,  999.0,  999.0,   52.8,   57.3,   48.6,   53.7,   50.6,  999.0,   43.7,   46.6,  999.0,   39.6,   41.8,   32.2,   35.0,   37.6,   41.6,   44.2,  999.0,   40.4,   46.3,   43.7,  999.0,  999.0,  999.0,  999.0,   35.9,   43.6,  999.0,  999.0,  999.0,   35.7,  999.0,  999.0,  999.0,  999.0,   36.5,  999.0,  999.0,   29.7,   28.7,   30.5,   33.0,  999.0,  999.0,  999.0,   27.0,  999.0,  999.0,  999.0,   12.5,   10.5,  999.0
2001/03/23 09:05,   12.3,   13.3,   14.2,   14.4,   12.5,   12.6,   12.9,   13.8,   14.8,  999.0,  999.0,   15.2,   16.3,   14.9,   15.4,   14.6,   15.7,   16.3,   15.5,   16.4,   17.8,   19.0,   20.5,   24.2,   25.1,   25.5,   25.4,   24.5,   24.2,   24.7,   23.9,   24.2,   24.6,   26.3,   28.0,   30.2,   32.7,   34.4,   33.8,   33.8,   34.4,   34.6,   35.2,   35.9,   34.8,   35.1,   37.4,   38.1,   39.0,   40.9,   38.9,   38.1,   40.0,   40.2,   42.0,   43.3,   45.7,   47.1,   42.6,   43.9,   47.2,   47.2,   47.7,   50.4,   54.4,   54.6,   55.7,   54.1,   48.7,   54.8,   58.5,   51.3,   52.7,   53.9,   46.6,  999.0,   49.9,  999.0,   40.6,   42.9,   31.5,   36.1,   37.3,   41.7,   46.7,  999.0,   39.1,   43.0,   41.6,   43.0,  999.0,  999.0,  999.0,  999.0,  999.0,  999.0,  999.0,  999.0,  999.0,  999.0,  999.0,  999.0,  999.0,   35.2,  999.0,  999.0,  999.0,  999.0,  999.0,   31.4,  999.0,   25.9,  999.0,  999.0,  999.0,  999.0,  999.0,   13.5,  999.0,  999.0
2001/03/23 09:15,   10.7,   13.0,   14.2,   14.4,   11.3,   11.4,   11.4,   13.3,   14.5,   16.3,   16.4,   15.3,   14.6,   13.8,   13.9,   14.6,   16.0,   15.9,   15.7,   17.8,   18.4,   18.9,   20.6,   25.5,   25.4,   25.3,   24.5,   24.8,   24.9,   24.0,   23.1,   24.1,   25.5,   27.2,   28.5,   30.3,   32.6,   33.8,   33.2,   33.5,   32.9,   33.2,   34.6,   34.6,   34.8,   35.4,   36.9,   38.0,   38.2,   39.1,   37.3,   36.6,   38.2,   39.2,   40.1,   43.5,   46.1,   44.0,   45.1,   44.0,   48.8,   48.9,   48.8,   49.6,   53.4,   53.7,   57.0,  999.0,   50.1,   53.9,   62.0,   55.9,   51.7,   54.6,   54.0,   43.8,   46.9,   46.8,   42.3,   36.2,   36.1,  999.0,   40.7,   44.9,   44.5,  999.0,  999.0,   42.4,   37.4,  999.0,   63.2,  999.0,  999.0,   30.8,   33.3,   40.7,  999.0,  999.0,  999.0,  999.0,  999.0,  999.0,  999.0,   31.1,  999.0,  999.0,  999.0,  999.0,   28.2,  999.0,   25.6,   29.8,  999.0,  999.0,  999.0,  999.0,  999.0,   14.6,   11.6,  999.0
2001/03/23 09:25,   10.4,   12.6,   13.6,   13.9,   11.5,   12.0,   13.0,   15.3,   16.1,   16.7,   17.3,   15.5,   15.7,   15.4,   16.0,   15.7,   18.3,   18.8,   19.6,   18.8,   19.3,   18.9,   21.2,   23.2,   24.2,   24.6,   24.6,   23.8,   23.9,   23.6,   22.9,   23.9,   25.0,   26.5,   28.8,   31.3,   34.0,   34.7,   33.4,   34.3,   34.1,   32.9,   34.0,   34.2,   33.9,   36.4,   37.0,   37.8,   38.0,   37.2,   37.2,   37.3,   36.6,   40.7,   41.3,   42.5,   41.4,   43.1,   42.5,   45.2,   46.3,   47.1,   46.2,   48.0,   50.7,   55.9,   59.2,  999.0,   47.5,   55.3,   59.5,   56.2,   51.3,   54.2,   45.2,   48.9,   48.0,   42.8,   41.8,   38.2,   35.8,   37.2,   38.9,   44.7,   42.5,   42.7,  999.0,   44.4,   42.2,  999.0,  999.0,  999.0,  999.0,  999.0,   34.5,   38.0,   34.2,   35.9,  999.0,  999.0,  999.0,   34.1,  999.0,  999.0,   34.5,  999.0,  999.0,  999.0,   27.0,  999.0,   26.1,  999.0,   25.7,   27.3,  999.0,  999.0,   17.0,   11.9,    9.7,   11.9
2001/03/23 09:35,    9.2,   10.7,   13.3,   14.0,   11.9,   11.8,   12.9,   14.6,   17.5,   16.7,   16.2,   15.9,   15.7,   16.0,   16.5,   16.1,   17.2,   18.0,   20.2,   20.2,   20.0,   19.4,   20.9,   22.3,   22.3,   23.3,   23.5,   22.8,   22.7,   21.5,   22.5,   22.8,   24.5,   26.0,   28.6,   32.2,   32.9,   33.6,   33.4,   33.6,   31.9,   32.7,   33.5,   34.8,   34.5,   35.0,   35.7,   36.5,   36.2,   36.2,   36.2,   36.9,   38.3,   38.4,   39.4,   42.1,   41.6,   42.4,   44.8,   42.9,   46.2,   45.6,   47.8,   45.8,   50.9,   55.3,  999.0,   51.9,   47.8,   53.8,   58.6,   55.9,   54.8,   53.6,   46.5,   48.4,   49.2,  999.0,   38.3,   40.2,   35.0,   35.0,   37.9,   43.6,   49.1,   41.6,  999.0,   40.8,  999.0,  999.0,  999.0,   43.3,   44.6,  999.0,   33.9,   36.3,  999.0,  999.0,   35.9,  999.0,  999.0,  999.0,   34.3,   39.5,  999.0,  999.0,  999.0,  999.0,   29.1,  999.0,  999.0,  999.0,  999.0,   31.6,  999.0,  999.0,  999.0,  999.0,   10.3,  999.0
2001/03/23 09:45,    9.2,   10.9,   11.7,   13.4,   12.8,   11.3,   11.5,   14.6,  999.0,   15.7,   16.4,   14.4,   14.8,   15.9,   17.0,   17.8,   17.1,   17.6,   18.5,   19.6,   20.9,   21.2,   21.0,   21.6,   22.5,   23.3,   23.3,   22.5,   22.4,   21.4,   20.5,   21.7,   23.4,   25.7,   29.7,   32.7,   32.6,   32.4,   34.3,   33.1,   32.2,   32.8,   33.0,   33.5,   34.9,   35.9,   35.1,   36.2,   36.2,   36.6,   36.6,   36.9,   36.3,   37.9,   39.0,   40.4,   40.4,  999.0,   46.2,   45.7,   45.6,   47.0,   46.7,   45.8,   52.3,   56.8,  999.0,  999.0,   49.7,   55.6,   57.8,   56.3,   48.2,   50.5,   48.7,   47.4,   48.5,   45.3,   42.5,   37.6,  999.0,   35.3,   36.8,   43.1,   47.0,   40.8,   39.1,   39.8,   40.2,   43.6,   41.0,  999.0,   40.2,  999.0,  999.0,  999.0,   38.6,  999.0,  999.0,  999.0,  999.0,  999.0,  999.0,   37.7,   37.6,  999.0,  999.0,  999.0,   28.4,   28.7,   29.9,  999.0,   30.5,  999.0,  999.0,   25.3,   20.8,   17.0,   14.3,   11.4
2001/03/23 09:55,    9.7,   10.5,   12.5,   13.6,   13.1,    9.9,   10.9,   12.5,   13.9,   13.9,   14.4,   14.8,   14.3,   14.9,   16.3,   18.1,   17.0,   17.7,   18.1,   19.4,   19.5,   20.7,   22.9,   21.8,   22.6,   23.6,   22.9,   22.8,   21.2,   21.1,   21.4,   23.2,   24.8,   27.1,   29.7,   32.5,   32.5,   33.4,   34.0,   33.0,   32.6,   33.3,   32.5,   33.1,   33.9,   34.6,   34.8,   35.4,   34.9,   36.1,   36.1,   35.1,   35.5,   35.9,   38.3,   38.9,   40.7,   43.2,   41.9,   45.0,   43.0,   47.1,   44.9,   47.5,   51.0,   55.7,   49.2,   48.4,   52.1,   58.1,   53.5,   56.0,   53.8,   48.8,  999.0,   47.4,   48.2,   45.7,   41.1,   39.5,   35.8,   36.6,   38.2,   42.3,   45.1,  999.0,   37.8,  999.0,   40.7,  999.0,  999.0,  999.0,   41.5,  999.0,   33.3,   37.8,   41.3,   34.6,   35.3,  999.0,  999.0,  999.0,   33.5,   38.0,   38.0,   31.5,  999.0,  999.0,  999.0,  999.0,   27.4,   31.0,   30.4,   30.3,  999.0,   18.7,   18.3,   19.1,   13.4,  999.0
2001/03/23 10:05,    9.9,   10.6,   12.8,   13.4,   12.8,   11.5,   11.5,   13.5,   13.8,   14.9,   14.8,   14.3,   14.3,   15.3,   16.7,   17.4,   17.5,   16.7,   16.8,   18.0,   19.0,   20.7,   21.3,   22.0,   22.0,   22.6,   22.3,   22.8,   22.3,   21.3,   21.7,   22.8,   25.2,   27.9,   31.5,   32.9,   32.0,   33.2,   34.4,   32.2,   33.1,   32.3,   32.9,   32.9,   33.5,   34.3,   33.9,   33.9,   34.0,   34.5,   34.7,   35.5,   35.8,   37.0,   39.0,   40.0,   40.2,   42.2,   45.1,   46.4,   43.1,   42.5,   43.7,   47.5,   48.9,  999.0,   51.4,   48.4,   52.4,   58.5,   51.6,   55.1,   57.1,   47.6,   46.7,   47.9,   46.2,   46.0,   39.2,   40.8,   38.3,   36.1,   37.9,   40.6,  999.0,   45.4,   41.9,   42.0,  999.0,  999.0,  999.0,  999.0,  999.0,  999.0,   36.1,   35.6,  999.0,   37.2,   37.0,  999.0,  999.0,  999.0,   32.7,   36.9,  999.0,  999.0,  999.0,  999.0,  999.0,  999.0,  999.0,   29.6,  999.0,  999.0,  999.0,  999.0,  999.0,   16.9,   14.0,    9.3
2001/03/23 10:15,   10.8,   11.1,   12.8,   13.2,   11.2,   12.3,   14.3,   14.4,   14.3,   14.0,   13.5,   14.3,   14.7,   16.4,   18.1,   19.1,   17.9,   17.3,   17.4,   18.5,   19.4,   20.3,   20.1,   21.2,   21.8,   22.4,   21.9,   21.8,   22.0,   22.3,   20.6,   22.1,   24.2,   26.7,   30.3,   31.9,   31.6,   32.9,   32.6,   31.3,   31.2,   30.8,   31.5,   31.8,   32.4,   33.3,   33.8,   33.5,   33.6,   33.6,   34.5,   34.1,   35.3,   37.3,   38.1,   40.6,   41.0,   44.6,   43.6,   41.6,   42.9,   40.8,   43.8,   46.5,   49.8,   54.4,   50.7,   47.5,   53.1,   56.7,   52.5,   57.1,   52.9,   50.6,   45.7,   49.3,   45.9,   47.3,  999.0,   39.6,   37.2,   37.3,   39.4,   40.9,   44.1,  999.0,   41.5,  999.0,   47.5,  999.0,  999.0,   42.5,  999.0,  999.0,   36.1,   38.8,   34.7,   39.1,   35.3,  999.0,  999.0,  999.0,   33.4,   36.7,   35.9,   31.4,  999.0,  999.0,  999.0,  999.0,  999.0,  999.0,   28.9,  999.0,  999.0,  999.0,  999.0,   18.5,   16.6,  999.0
2001/03/23 10:25,   10.7,   11.6,   13.5,   13.6,   13.2,   14.7,   15.0,   14.8,   15.0,   14.4,   14.5,   14.8,   14.8,   16.4,   17.4,   17.4,   17.0,   16.0,   16.2,   16.9,   18.4,   19.2,   20.6,   20.8,   22.0,   22.2,   22.3,   20.8,   20.9,   20.9,   21.1,   22.4,   24.6,   28.7,   30.5,   31.7,   31.4,   32.9,   31.4,   30.2,   29.5,   30.2,   31.3,   32.1,   32.4,   32.8,   33.4,   32.0,   31.3,   32.6,   33.4,   33.8,   35.3,   37.6,   38.4,   43.9,   40.3,   43.7,   43.4,   42.1,   38.5,   42.6,   42.8,   45.3,   49.7,   52.6,   49.0,   48.7,   56.1,   51.4,   53.3,   56.7,  999.0,   48.8,   46.7,   51.3,   43.7,   45.5,  999.0,   44.1,  999.0,   36.9,   37.9,   40.6,   44.8,   46.2,   42.6,   43.7,  999.0,  999.0,  999.0,  999.0,  999.0,   39.6,  999.0,  999.0,  999.0,   35.0,   38.1,   39.3,  999.0,  999.0,  999.0,   35.1,   35.0,  999.0,  999.0,   28.4,  999.0,  999.0,   28.6,  999.0,   29.5,  999.0,  999.0,  999.0,   19.2,   17.1,   16.4,   12.2
2001/03/23 10:35,    8.9,   10.1,   11.1,   12.0,   11.0,   13.3,   14.6,   15.2,   14.8,   14.4,   15.0,   15.4,   15.6,   16.4,   17.0,   16.0,   16.0,   16.1,   16.0,   17.0,   19.1,   19.5,   20.1,   20.6,   21.5,   21.8,   22.2,   21.1,   21.2,   20.2,   21.4,   23.7,   27.2,   29.2,   31.8,   32.5,   32.0,   32.5,   30.4,   31.3,   29.8,   30.4,   30.7,   32.3,   31.8,   31.6,   32.1,   32.8,   33.0,   35.2,   32.6,   33.7,   33.5,   37.1,   39.5,   40.2,   42.0,   41.3,   41.4,   40.1,   39.6,   43.5,   41.7,   45.5,   49.7,   52.8,   51.2,   48.8,   55.7,   52.2,   54.1,   56.3,  999.0,   48.1,   48.6,   52.6,   42.8,   46.8,   41.3,   38.5,   35.6,   36.6,  999.0,   39.6,   45.2,  999.0,   41.5,   42.7,   45.4,  999.0,  999.0,  999.0,  999.0,  999.0,   38.3,   36.2,   34.3,   38.6,   36.5,   38.7,  999.0,  999.0,  999.0,   35.0,   34.1,  999.0,   26.2,   26.8,  999.0,   30.1,   32.5,   25.6,   28.6,   26.5,  999.0,   20.6,   22.2,   16.8,   13.6,   10.1
2001/03/23 10:45,   10.3,   11.0,   12.6,   12.7,   11.7,   13.6,   15.0,   14.0,   14.5,   14.3,   14.1,   14.8,   15.7,   17.4,   17.6,   15.9,   15.3,   15.7,   17.1,   19.0,   20.3,   20.2,   20.7,   20.9,   20.9,   21.5,   22.1,   21.0,   20.4,   20.0,   21.2,   23.9,   26.7,   29.5,   31.6,   33.0,   32.5,   31.9,   31.5,   31.2,   30.0,   29.2,   31.1,   30.9,   31.8,   32.0,   32.5,   32.5,   31.8,   32.2,   32.1,   32.4,   34.4,   36.5,   36.3,   40.4,   42.2,   41.9,   39.4,   35.5,   40.4,   43.3,   41.1,   45.1,   49.0,   48.8,   48.1,   47.9,   52.6,   54.9,   55.7,   55.9,   50.2,   48.6,   47.8,   49.8,   48.8,   44.6,   47.2,  999.0,   37.4,   36.2,   38.6,   41.8,   46.2,  999.0,   43.4,   41.3,   42.8,  999.0,   44.6,  999.0,   37.4,   38.6,  999.0,   34.8,   37.3,   37.3,   40.3,   34.3,  999.0,  999.0,  999.0,   34.6,   35.8,   30.4,   26.3,   27.7,  999.0,  999.0,  999.0,   27.2,   28.8,  999.0,  999.0,  999.0,  999.0,   16.2,   13.6,   10.0
2001/03/23 10:55,    9.6,   10.0,   11.5,   11.6,   11.3,   12.9,   14.6,   14.9,   15.6,   14.9,   13.9,   14.9,   16.4,   17.3,   16.7,   17.3,   15.6,   15.7,   16.5,   18.6,   19.2,   19.3,   19.9,   20.2,   20.7,   21.0,   21.2,   21.0,   19.4,   18.8,   18.5,   21.7,   24.8,   27.3,   29.6,   31.6,   31.5,   31.1,   31.6,   29.9,   29.1,   29.4,   30.0,   30.5,   31.9,   32.5,   32.1,   32.0,   31.9,   32.7,   32.1,   31.8,   33.9,   36.2,   36.6,   39.4,   42.5,   38.7,   38.5,   36.9,   41.5,   39.1,   42.1,   45.4,   49.0,   47.8,   47.3,   48.6,   54.4,   55.6,   61.3,   59.2,   49.1,   46.4,   49.3,   52.7,   46.4,   50.1,  999.0,  999.0,  999.0,   37.7,   38.2,   39.9,   46.4,  999.0,   40.5,  999.0,  999.0,  999.0,  999.0,   32.1,   38.9,   40.2,   40.7,  999.0,   36.1,   37.5,   37.8,   33.7,  999.0,  999.0,  999.0,   32.7,   35.2,  999.0,   27.6,   29.0,   29.5,   30.9,  999.0,   29.5,   29.2,  999.0,  999.0,   20.7,  999.0,   17.3,   13.4,   12.6
2001/03/23 11:05,   10.0,   11.0,   11.5,   12.0,   11.2,   13.3,   15.2,   14.8,   14.4,   12.9,   14.8,   15.8,   16.4,   15.5,   14.9,   13.3,   12.7,   14.8,   17.9,   20.4,   21.1,   21.0,   20.1,   20.7,   20.2,   20.1,   20.6,   20.1,   19.5,   18.1,   18.7,   21.7,   24.8,   27.5,   29.4,   31.3,   31.3,   31.3,   31.4,   30.8,   29.0,   29.1,   30.2,   30.0,   31.9,   32.9,   32.2,   31.5,   31.5,   32.0,   31.2,   33.5,   34.4,   35.3,   37.6,   40.4,   38.6,  999.0,   36.0,   38.3,   40.4,   40.2,   46.7,   46.0,   43.3,   48.2,   45.3,   50.4,   55.4,   55.8,   57.8,   58.3,   47.6,   51.3,   47.3,   51.5,   45.5,   47.1,  999.0,  999.0,   36.8,   37.4,   36.4,   38.2,   45.5,  999.0,   41.5,  999.0,  999.0,   45.8,  999.0,  999.0,   42.8,  999.0,   40.0,   42.5,   36.1,   39.0,   42.5,  999.0,  999.0,  999.0,  999.0,   33.1,   34.2,   29.4,   29.0,  999.0,  999.0,  999.0,   31.0,  999.0,   28.8,  999.0,  999.0,  999.0,  999.0,  999.0,   15.1,   10.8
2001/03/23 11:15,   10.6,   11.1,   12.6,   12.9,   11.5,   13.1,   14.6,   14.0,   13.2,   13.3,   15.6,   16.4,   17.5,   16.4,   15.2,   14.3,   13.7,   14.8,   17.0,   19.1,   19.1,   19.3,   19.9,   20.8,   19.9,   20.1,   19.9,   19.4,   19.2,   18.6,   19.7,   22.0,   25.2,   27.2,   29.7,   32.4,   31.8,   31.9,   32.5,   31.7,   30.2,   29.6,   29.6,   31.0,   33.1,   33.7,   32.0,   31.8,   32.2,   32.4,   30.4,   31.9,   33.3,   34.6,   37.5,   39.4,  999.0,  999.0,   36.9,   39.2,   37.8,   40.4,   43.7,   46.3,   45.0,   46.2,   46.2,   51.6,   52.2,   56.9,   58.4,   53.7,   47.4,   50.0,   48.3,   49.9,   52.7,   46.0,   47.4,  999.0,   37.8,   38.3,   37.1,   40.6,   46.0,   47.9,   40.3,   43.9,   41.3,   47.0,  999.0,  999.0,   39.2,   39.8,   38.4,   43.0,   38.8,   40.9,   42.2,  999.0,  999.0,  999.0,  999.0,   32.7,   32.8,   34.2,   28.5,  999.0,   32.3,  999.0,  999.0,   27.8,   29.0,  999.0,  999.0,  999.0,  999.0,  999.0,   14.4,   13.2
2001/03/23 11:25,   10.2,   10.6,   12.3,   12.5,   11.5,   13.6,   14.5,   14.1,   13.2,   14.2,   15.2,   16.6,   16.2,   15.1,   14.8,   13.6,   13.9,   14.9,   15.5,   17.1,   16.9,   18.1,   19.3,   18.5,   18.1,   18.5,   18.9,   18.6,   17.4,   18.5,   19.3,   21.8,   24.4,   27.2,   30.1,   32.2,   31.2,   30.8,   31.4,   29.8,   29.3,   28.7,   29.4,   31.1,   32.0,   32.5,   32.7,   31.9,   31.5,   31.9,   31.4,   33.0,   35.5,   38.3,   38.3,   40.9,   39.4,   35.7,   38.7,   38.3,   38.3,   40.9,   42.8,   46.6,   45.7,   46.8,   49.5,   51.8,   56.0,   56.7,  999.0,   50.6,   48.8,   48.9,   45.8,   48.0,  999.0,   41.7,   45.8,  999.0,   37.9,   37.8,   37.4,   42.2,   47.3,  999.0,   42.3,   41.5,  999.0,  999.0,  999.0,   48.4,   44.7,   38.1,   40.0,   42.6,   37.6,   41.2,  999.0,  999.0,  999.0,  999.0,  999.0,   31.4,   31.3,   29.2,   30.3,  999.0,  999.0,   30.2,   30.8,  999.0,  999.0,  999.0,  999.0,  999.0,  999.0,   19.6,  999.0,   14.2
2001/03/23 11:35,    9.6,   10.6,   12.6,   12.6,   11.5,   12.3,   13.5,   14.0,   13.7,   13.8,   15.1,   16.5,   17.0,   16.6,   15.3,   14.6,   13.2,   14.8,   15.8,   17.5,   19.1,   19.6,   19.8,   18.6,   17.0,   17.6,   18.0,   17.7,   17.7,   17.6,   18.9,   21.4,   24.0,   26.0,   28.8,   31.4,   30.5,   30.1,   30.2,   29.6,   29.4,   28.0,   30.4,   31.3,   32.4,   32.4,   32.2,   31.5,   31.2,   32.6,   31.0,   31.9,   34.6,   36.5,   38.7,   39.0,   38.6,   36.2,   37.9,   38.0,   39.0,   42.4,   44.3,   45.2,   46.3,   46.8,   51.2,   51.5,   55.3,   57.5,   53.8,   49.7,   48.4,   46.4,   44.8,   47.6,   48.9,   43.4,   45.9,   50.9,   35.2,  999.0,   40.2,   44.2,   47.4,  999.0,   40.4,   42.6,  999.0,  999.0,  999.0,   49.1,   43.3,   44.0,   37.6,   40.5,   38.9,   40.8,  999.0,  999.0,  999.0,  999.0,   28.0,   31.6,   29.8,  999.0,  999.0,  999.0,   32.5,  999.0,   33.7,   28.4,   27.8,   27.6,   20.6,  999.0,  999.0,   16.9,   15.6,   10.8
2001/03/23 11:45,    9.6,   11.0,   12.1,   12.4,   10.5,   11.7,   14.2,   14.1,   13.7,   13.9,   15.5,   16.9,   17.0,   16.5,   16.2,   14.7,   14.5,   15.7,   16.5,   18.1,   18.7,   18.8,   18.8,   18.2,   17.7,   17.5,   18.0,   17.7,   17.3,   17.7,   18.7,   20.9,   23.8,   27.1,   28.3,   30.4,   30.7,   29.9,   30.0,   30.2,   30.8,   30.9,   31.5,   32.0,   32.1,   31.4,   31.7,   32.0,   32.4,   31.0,   31.4,   31.3,   34.2,   37.7,   37.2,   38.2,   37.1,   35.9,   36.2,   38.4,   39.2,   40.8,   44.4,   46.4,  999.0,   44.3,   50.9,   52.5,   52.5,   53.9,   53.2,   50.0,   49.2,   43.2,   46.3,   47.6,  999.0,   45.4,   45.0,   48.1,   39.5,  999.0,   40.0,   45.6,   48.4,   41.9,   40.7,   42.2,  999.0,  999.0,  999.0,   49.0,  999.0,   44.5,   38.0,   38.3,   41.7,   38.2,   38.4,  999.0,  999.0,  999.0,   31.2,   34.1,  999.0,   27.3,   29.5,  999.0,  999.0,  999.0,  999.0,  999.0,   31.4,   27.8,  999.0,  999.0,  999.0,   17.3,   16.7,   10.8
2001/03/23 11:55,    9.8,   10.5,   11.9,   11.4,   10.6,   11.4,   12.4,   12.4,   12.8,   15.5,   16.7,   16.1,   17.3,   16.7,   16.4,   15.7,   16.0,   16.7,   17.1,   17.1,   17.4,   17.7,   18.4,   17.9,   16.8,   16.5,   16.7,   17.0,   17.7,   17.4,   18.0,   21.4,   23.9,   27.5,   28.4,   29.7,   30.6,   30.4,   30.0,   30.1,   30.8,   31.2,   30.6,   30.4,   30.4,   30.2,   30.4,   30.7,   30.2,   30.7,   29.8,   32.0,   35.5,   37.7,   37.1,   37.9,   35.9,   35.0,   36.7,   39.9,   39.2,   43.8,   43.7,   48.2,  999.0,   47.1,   51.1,   54.0,   50.2,   54.7,   52.7,   48.9,   50.2,   43.5,   48.8,   51.5,   42.8,   47.6,   44.6,   43.7,  999.0,   37.5,   38.2,   41.7,   47.3,  999.0,  999.0,  999.0,  999.0,  999.0,  999.0,  999.0,  999.0,  999.0,  999.0,  999.0,   39.1,   35.4,   37.0,  999.0,   34.9,  999.0,  999.0,  999.0,  999.0,  999.0,  999.0,  999.0,  999.0,  999.0,  999.0,  999.0,  999.0,  999.0,  999.0,  999.0,  999.0,  999.0,  999.0,  999.0
2001/03/23 12:05,    9.4,   11.3,   11.4,   11.5,   10.5,   10.5,   11.0,   12.1,   12.9,   13.9,   15.7,   17.5,   16.7,   16.6,   17.0,   17.0,   15.1,   16.7,   17.4,   17.7,   18.0,   18.2,   17.0,   16.5,   18.0,   18.9,   17.3,   17.7,   17.5,   17.1,   17.9,   20.8,   24.5,   27.9,   27.4,   27.7,   29.9,   29.8,   29.3,   29.9,   30.7,   31.3,   31.5,   30.0,   30.5,   30.5,   29.6,   29.1,   29.2,   30.2,   30.3,   32.5,   35.0,   36.4,   38.1,   37.3,   33.8,   33.9,   34.5,   38.2,   42.0,   43.0,   44.4,  999.0,  999.0,   44.9,   51.9,   52.3,   50.5,   56.8,   48.9,   50.6,   52.3,   45.2,   45.3,   49.5,   44.2,  999.0,   43.0,   44.9,  999.0,   39.4,   37.0,   42.8,   49.4,   45.1,  999.0,   37.5,   41.7,  999.0,  999.0,  999.0,  999.0,   39.7,  999.0,   35.1,   37.8,   34.3,   34.0,   31.5,   33.9,   33.1,  999.0,   30.6,   33.8,  999.0,   28.3,   32.1,  999.0,   31.8,   31.3,  999.0,  999.0,   30.8,   24.2,  999.0,  999.0,   18.0,   15.3,   12.7
